Les Foulées de Bondues

 

DIMANCHE 27 MAI 2018

 

10 km (label régional) 

 Course Nature 5 km – Marche 5 km 

Mini-trail 1,5 km –  Mini-foulées 700 m

 

 

Résultats de l’édition 2018

CourseClassementNomPrénomLicenceNuméroNaissanceClassement par Cat.Abbrev. CatégorieClassement par SexeSexeTempsClub 
10KM LABEL REGIONAL1CARETTERomain129561337619901SE1M00:33:29.51LILLE METROPOLE ATHLETISME
10KM LABEL REGIONAL2DELECROIXBenjamin37793318219842SE2M00:33:39.22VILLENEUVE D ASCQ FRETIN ATHLETISME
10KM LABEL REGIONAL3ALLOYSébastien678158619933SE3M00:34:38.61LILLE METROPOLE ATHLETISME
10KM LABEL REGIONAL4MUREZJOACHIM78319981ES4M00:34:41.65
10KM LABEL REGIONAL5LANEEUWJeremy131754933219874SE5M00:34:52.05LILLE METROPOLE ATHLETISME
10KM LABEL REGIONAL6BASTIENALOIS12220079019865SE6M00:35:10.43LILLE METROPOLE ATHLETISME
10KM LABEL REGIONAL7AVENELMaxime1219926SE7M00:35:26.48ASSO SUN LILLE
10KM LABEL REGIONAL8DELMASRomain27872518819761V18M00:35:32.27RC ARRAS
10KM LABEL REGIONAL9BETTAVERMANUEL77019732V19M00:35:50.64
10KM LABEL REGIONAL10BOUVIERPierre6869807519783V110M00:35:51.38ES ARQUES
10KM LABEL REGIONAL11BASTIENFlorian2619827SE11M00:36:01.37
10KM LABEL REGIONAL12SABATIERAntoine50419798SE12M00:36:09.97
10KM LABEL REGIONAL13VITTUGuillaume58719859SE13M00:36:15.29
10KM LABEL REGIONAL14BANACHLudovic1819764V114M00:36:21.23
10KM LABEL REGIONAL15SCHOEFFTERGuillaume515199110SE15M00:36:40.19
10KM LABEL REGIONAL16MUREZANTHONY78219962ES16M00:36:40.73
10KM LABEL REGIONAL17BOIDINClément180251857199011SE17M00:36:43.41VILLENEUVE D ASCQ FRETIN ATHLETISME
10KM LABEL REGIONAL18BOUDJEMAClement66219461V418M00:36:51.48
10KM LABEL REGIONAL19BOUROUBAMohamed176689963619765V119M00:36:56.88carabinier billy montigny
10KM LABEL REGIONAL20OZEELBaptiste450198912SE20M00:37:06.10VILLENEUVE D'ASCQ TRIATHLON
10KM LABEL REGIONAL21CHARLETQuentin441534119198713SE21M00:37:19.05OA HAZEBROUCK
10KM LABEL REGIONAL22CLASENYann124199114SE22M00:37:43.54
10KM LABEL REGIONAL23DELEUMartin185198415SE23M00:37:45.39LILLE TRIATHLON
10KM LABEL REGIONAL24COVAINGrégory13719766V124M00:37:48.20
10KM LABEL REGIONAL25BRIANDHUGO79920011CA25M00:37:49.48
10KM LABEL REGIONAL26DELCROIXYANN15533597073119787V126M00:37:53.05US MARQUETTE
10KM LABEL REGIONAL27BRUNELLEFREDDY79219738V127M00:38:00.67
10KM LABEL REGIONAL28DARDEFabien1083719145198716SE28M00:38:08.10OSM LOMME ATHLETISME
10KM LABEL REGIONAL29BETRICHEHOCINET30408570819719V129M00:38:10.41
10KM LABEL REGIONAL30VAILLIArnaud548199317SE30M00:38:14.44
10KM LABEL REGIONAL31PACHECOGABRIEL694197510V131M00:38:24.14
10KM LABEL REGIONAL32DULOTElodie212407111319861SE1F00:38:29.58SAINT VENANT ATHLETISME
10KM LABEL REGIONAL33MANESSEGUILLAUME1979906393198018SE32M00:38:31.94US MARQUETTE
10KM LABEL REGIONAL34BOSSUYTGuillaume110606464199019SE33M00:38:36.23ATHLETISME CLUB SECLINOIS
10KM LABEL REGIONAL35HOLINMARC ANTOINE1825438308198220SE34M00:38:41.36NOUVEAU SAINT AMAND ETUDIANT CLUB
10KM LABEL REGIONAL36CANAVATENicolas131767697197611V135M00:38:43.78US MARQUETTE
10KM LABEL REGIONAL37BOURELBenjamin72199221SE36M00:38:44.52
10KM LABEL REGIONAL38HEWUSZFabrice1608777304197612V137M00:38:44.70GOHELLE ATHLETISME
10KM LABEL REGIONAL39VERDOUCQLAURENT1641917795197113V138M00:38:51.21ES ARQUES
10KM LABEL REGIONAL40LIBERTThibault378199322SE39M00:38:51.89
10KM LABEL REGIONAL41MAUNAYSERGE1777977404197214V140M00:38:58.31LILLE METROPOLE ATHLETISME
10KM LABEL REGIONAL42DEMONLoic606197515V141M00:39:00.55
10KM LABEL REGIONAL43OTTXAVIER79119661V242M00:39:05.68
10KM LABEL REGIONAL44BASTAERTMaxime24198923SE43M00:39:11.25
10KM LABEL REGIONAL45OSSOROFRANCK1597901448197716V144M00:39:13.15ETOILE OIGNIES
10KM LABEL REGIONAL46LEIGNELLaurent1651919352197817V145M00:39:14.59US MARQUETTE
10KM LABEL REGIONAL47BRANSWYCKAUDREY180467103419781V12F00:39:15.25OSM LOMME ATHLETISME
10KM LABEL REGIONAL48LABESSEBenoit326198924SE46M00:39:16.28
10KM LABEL REGIONAL49COSSETRaphael792850132197925SE47M00:39:19.06LILLE METROPOLE ATHLETISME
10KM LABEL REGIONAL50DESWARTEThierry21819662V248M00:39:21.15
10KM LABEL REGIONAL51DELAHOUTREGREGORY753196918V149M00:39:23.57
10KM LABEL REGIONAL52PICOTAndre461198526SE50M00:39:24.52
10KM LABEL REGIONAL53PROUVOSTMaxime471197927SE51M00:39:24.72
10KM LABEL REGIONAL54DUMORTIERDavid1926936237197928SE52M00:39:25.53US MARQUETTE
10KM LABEL REGIONAL55VASSALNICOLAS805198129SE53M00:39:31.09
10KM LABEL REGIONAL56GAXATTECédric662783269197519V154M00:39:35.61LILLE METROPOLE ATHLETISME
10KM LABEL REGIONAL57GONZALEZArnaud279197930SE55M00:39:44.65
10KM LABEL REGIONAL58LEGRANDStéphanie753607117919772V13F00:39:45.72ATHLE HALLUIN-VAL-DE-LYS
10KM LABEL REGIONAL59THESSIEUHugo194995853519991JU56M00:39:46.10JOGGING AVENTURE RONCQUOISE
10KM LABEL REGIONAL60RAULTFabien704902481197520V157M00:39:46.92DOUAI-SIN A
10KM LABEL REGIONAL61CLAEYSLudovic123197621V158M00:39:49.66UNIRUN
10KM LABEL REGIONAL62LEURENTQuentin373199231SE59M00:39:54.58
10KM LABEL REGIONAL63CAVDARINiath688197932SE60M00:39:55.74
10KM LABEL REGIONAL64HALLENNEVALERY1473563785197122V161M00:39:57.34TOUQUET OPALE ATHLETISME
10KM LABEL REGIONAL65DECRUCORINNE1556102107319753V14F00:40:00.91US MARQUETTE
10KM LABEL REGIONAL66LOTIGIEMAXIME76719992JU62M00:40:02.28
10KM LABEL REGIONAL67NORTIERThierry1547844444196923V163M00:40:13.09PLANETE RUNNING AND WALKING
10KM LABEL REGIONAL68DECOTTIGNIESMathieu165198433SE64M00:40:14.83
10KM LABEL REGIONAL69NUYTTENSFRANCK749197024V165M00:40:23.00
10KM LABEL REGIONAL70DUCROCQCHRISTOPHE1459819796197025V166M00:40:24.13US MARQUETTE
10KM LABEL REGIONAL71VERBEKETTimothee1347219571198634SE67M00:40:26.46NOUVEAU SAINT AMAND ETUDIANT CLUB
10KM LABEL REGIONAL72PINTEVictor622199535SE68M00:40:31.63
10KM LABEL REGIONAL73WALGRAEFMARC189983972519673V269M00:40:32.82US TOURCOING
10KM LABEL REGIONAL74WANDERSCHEIDJonathan1585312591197626V170M00:40:35.00HEM ATHLETIC CLUB
10KM LABEL REGIONAL75LELEUJérémy35519973ES71M00:40:42.81
10KM LABEL REGIONAL76PUYPELudovic476197327V172M00:40:43.90
10KM LABEL REGIONAL77THIEBAUTFrantz1657949536197936SE73M00:40:47.19LILLE METROPOLE ATHLETISME
10KM LABEL REGIONAL78LANGLucie659004116819981ES5F00:40:54.55RC ARRAS
10KM LABEL REGIONAL79BARTIERGREGORY16936623197228V174M00:41:05.71COURIR ENSEMBLE SNCF
10KM LABEL REGIONAL80MICHELONRomain2019594416198537SE75M00:41:08.99VILLENEUVE D ASCQ FRETIN ATHLETISME
10KM LABEL REGIONAL81EL MZANDIYanis25319974ES76M00:41:12.46
10KM LABEL REGIONAL82LEJEUNEROMAIN381146353198838SE77M00:41:14.38ENTENTE OISE ATHLETISME
10KM LABEL REGIONAL83PIASECKIRomain459198839SE78M00:41:24.44
10KM LABEL REGIONAL84VANDENBUSSCHEJulien1958504558198540SE79M00:41:27.24LILLE METROPOLE ATHLETISME
10KM LABEL REGIONAL85DEWOLFFabrice67819654V280M00:41:30.43
10KM LABEL REGIONAL86COCHETSAMUEL695196929V181M00:41:31.69
10KM LABEL REGIONAL87OBRIOTMatthieu445199341SE82M00:41:34.74
10KM LABEL REGIONAL88HEURTEAUXFredericT30581130319685V283M00:41:36.80PASS'RUNNING
10KM LABEL REGIONAL89OUAZZENMARTIN81120022CA84M00:41:37.81
10KM LABEL REGIONAL90BOLLENGIERCHRISTIAN136901981219646V285M00:41:41.48US MARQUETTE
10KM LABEL REGIONAL91BOUKHOUBZA RICHARDMarion1987783103019792SE6F00:41:41.79US MARQUETTE
10KM LABEL REGIONAL92DUBOIS-PRUVOSTClaire219223110719803SE7F00:41:41.93VILLENEUVE D ASCQ FRETIN ATHLETISME
10KM LABEL REGIONAL93DUPONTMARYLINE1754233135019784V18F00:41:45.96ES ARQUES
10KM LABEL REGIONAL94CZAPRAGASAMUEL2015285140197330V186M00:41:50.65US MARQUETTE
10KM LABEL REGIONAL95TIRMARCHEAntoine114559254219975ES87M00:41:58.92LILLE METROPOLE ATHLETISME
10KM LABEL REGIONAL96LAUNAYPIERRE335197331V188M00:42:02.55AC MARCQUOIS
10KM LABEL REGIONAL97VANHESSCHEHILDE136219715V19F00:42:04.01
10KM LABEL REGIONAL98NOTTEJEROME1650889710197232V189M00:42:04.53ATHLE HALLUIN-VAL-DE-LYS
10KM LABEL REGIONAL99LEFEBVRERudy1161201348197033V190M00:42:10.47US MARQUETTE
10KM LABEL REGIONAL100SELSThomas518198742SE91M00:42:12.12
10KM LABEL REGIONAL101DESSEAUXTANGUY21520003JU92M00:42:15.55
10KM LABEL REGIONAL102VERDOUCQAntoine573199243SE93M00:42:18.15
10KM LABEL REGIONAL103GOBERTARNAUD720197534V194M00:42:22.55
10KM LABEL REGIONAL104GOBLETEmmanuel1958666275196935V195M00:42:24.79JOGGING AVENTURE RONCQUOISE
10KM LABEL REGIONAL105JACQUARTStéphane13370631719647V296M00:42:28.44ATHLE HALLUIN-VAL-DE-LYS
10KM LABEL REGIONAL106LENGLETNicolas359197736V197M00:42:33.14
10KM LABEL REGIONAL107BENDAOUDSofiane38198144SE98M00:42:33.89
10KM LABEL REGIONAL108BOURDONXAVIER71199345SE99M00:42:35.24
10KM LABEL REGIONAL109SXAYCaroline125719776V110F00:42:39.52
10KM LABEL REGIONAL110RUELLEJIMMY777198846SE100M00:42:42.55
10KM LABEL REGIONAL111MOECNicolas420197947SE101M00:42:48.05
10KM LABEL REGIONAL112FINIELSBenjamin259199048SE102M00:42:48.31
10KM LABEL REGIONAL113DEJAEGHERSEBASTIEN171197437V1103M00:42:50.79
10KM LABEL REGIONAL114HURTREZGuillaumeT305198315197538V1104M00:42:54.79PASS'RUNNING
10KM LABEL REGIONAL115BOUDARDSebastien188411768198149SE105M00:42:54.86LILLE METROPOLE ATHLETISME
10KM LABEL REGIONAL116OLLIVIERANAIS1271196122119934SE11F00:42:57.42LILLE METROPOLE ATHLETISME
10KM LABEL REGIONAL117CHANTRELRomain11519966ES106M00:42:59.83
10KM LABEL REGIONAL118MONNIERRonald423197439V1107M00:43:00.18FAW
10KM LABEL REGIONAL119CROCHETGuillaume2066611138198450SE108M00:43:00.84ENTENTE NORD DE L AISNE ATHLETISME
10KM LABEL REGIONAL120MENTRÉEtienne41019977ES109M00:43:08.09
10KM LABEL REGIONAL121HURAULTCorentin314199251SE110M00:43:11.33
10KM LABEL REGIONAL122DEWASTEAlexandre223198852SE111M00:43:15.04
10KM LABEL REGIONAL123DELATTREFrançois179198053SE112M00:43:17.81
10KM LABEL REGIONAL124BUCHOUXSTEPHANE88197040V1113M00:43:17.88
10KM LABEL REGIONAL125HAMRAOUITHOMAS789199154SE114M00:43:19.15
10KM LABEL REGIONAL126FIOLETJean Pascal260197441V1115M00:43:19.21
10KM LABEL REGIONAL127MILLEVILLEYves674198255SE116M00:43:24.01
10KM LABEL REGIONAL128DELANNOYFabrice176197542V1117M00:43:25.73
10KM LABEL REGIONAL129YVONNOUSABRINA807877135619865SE12F00:43:26.02ARTOIS ATHLETISME
10KM LABEL REGIONAL130MERYMATHILDE1293132134919926SE13F00:43:29.02VILLENEUVE D ASCQ FRETIN ATHLETISME
10KM LABEL REGIONAL131MONSIGNYDorothée121519817SE14F00:43:31.02
10KM LABEL REGIONAL132BELARDIJulien189413633198856SE118M00:43:35.88VILLENEUVE D ASCQ FRETIN ATHLETISME
10KM LABEL REGIONAL133DEJONCKHEEREBENJAMIN79419994JU119M00:43:37.16
10KM LABEL REGIONAL134COUVREURArnaud13619688V2120M00:43:37.23
10KM LABEL REGIONAL135DÉPREZPaul251198657SE121M00:43:37.28
10KM LABEL REGIONAL136GILDaniel274197543V1122M00:43:39.05
10KM LABEL REGIONAL137VANDRISSEGuillaume676197844V1123M00:43:41.98
10KM LABEL REGIONAL138LEMAIREPATRICK69319639V2124M00:43:45.39
10KM LABEL REGIONAL139DEGROOTEYannick1369347168197045V1125M00:43:48.53GOHELLE ATHLETISME
10KM LABEL REGIONAL140MAZAArnaud406199158SE126M00:43:49.34
10KM LABEL REGIONAL141SCALBERTVianney51419988ES127M00:43:50.99
10KM LABEL REGIONAL142VANBELLENicolas1633465556197746V1128M00:43:53.52PLANETE RUNNING AND WALKING
10KM LABEL REGIONAL143PLACEJean-François464198259SE129M00:43:54.13
10KM LABEL REGIONAL144BOSTYNFlorentin627198360SE130M00:43:55.42
10KM LABEL REGIONAL145DUC MAUGELAURENT1257989233196810V2131M00:43:56.10NOUVEAU SAINT AMAND ETUDIANT CLUB
10KM LABEL REGIONAL146POISSONIIERGabriel671197547V1132M00:43:57.24
10KM LABEL REGIONAL147BELLETJEAN FRANCOIS34197148V1133M00:43:57.26COTE D'OPALE TRIATHLON
10KM LABEL REGIONAL148PAUCHETGuillaume455198661SE134M00:43:59.29
10KM LABEL REGIONAL149KASTELIKThibault321199162SE135M00:43:59.38
10KM LABEL REGIONAL150POIREOlivier69109ES136M00:44:03.34
10KM LABEL REGIONAL151DHALLUINMatthieu224197749V1137M00:44:04.70
10KM LABEL REGIONAL152LIAGREArthur377199810ES138M00:44:06.92
10KM LABEL REGIONAL153GATTANOMaxime268198763SE139M00:44:11.57
10KM LABEL REGIONAL154GUINEMERSimon288198764SE140M00:44:15.19
10KM LABEL REGIONAL155CARDOENMarc1128316615197750V1141M00:44:17.40US TOURCOING
10KM LABEL REGIONAL156RORIVESébastien496197451V1142M00:44:17.45ASDN
10KM LABEL REGIONAL157BOCQUETMathieu56197552V1143M00:44:21.43
10KM LABEL REGIONAL158LUCASFrançois384198865SE144M00:44:21.50
10KM LABEL REGIONAL159DESNONSFREDERIC769197966SE145M00:44:25.15
10KM LABEL REGIONAL160DECOTTEGNIENicolas68420005JU146M00:44:28.77
10KM LABEL REGIONAL161LANGDominique333196111V2147M00:44:29.10
10KM LABEL REGIONAL162WILLERYMichaël596197853V1148M00:44:30.13
10KM LABEL REGIONAL163LECLERCQLUDOVIC1643724804197967SE149M00:44:31.67RONCHIN ATHLETIC CLUB
10KM LABEL REGIONAL164LECLERCQEric1568672344197154V1150M00:44:32.10US VALENCIENNES ATHLETISME
10KM LABEL REGIONAL165DZIWICKIMichel249198068SE151M00:44:35.18
10KM LABEL REGIONAL166MOREZGUILLAUME428197655V1152M00:44:36.38
10KM LABEL REGIONAL167DEPOILLYSuzon108819938SE15F00:44:41.51
10KM LABEL REGIONAL168BERGELJEROME57168642197456V1153M00:44:43.10ES ARQUES
10KM LABEL REGIONAL169CARTELJEROME104197969SE154M00:44:45.12
10KM LABEL REGIONAL170DELEAUTREAdrien612198470SE155M00:44:46.81
10KM LABEL REGIONAL171LEFEVRELudovic1731868609197257V1156M00:44:46.98JOGGING AVENTURE RONCQUOISE
10KM LABEL REGIONAL172CARLIERGuillaume616197258V1157M00:44:48.30AJC FRELINGHIEN
10KM LABEL REGIONAL173MULLERRobin43520023CA158M00:44:51.00AC MARCQUOIS
10KM LABEL REGIONAL174PEREALANDATHIERRY781196512V2159M00:44:52.48
10KM LABEL REGIONAL175CARREMaxime103198471SE160M00:44:53.69
10KM LABEL REGIONAL176GEGOUXPhilippe635197259V1161M00:44:55.13
10KM LABEL REGIONAL177LIPLAXAVIER728197860V1162M00:44:56.39US TOURCOING
10KM LABEL REGIONAL178IMPENSBernard1983332316197461V1163M00:44:56.47HEM ATHLETIC CLUB
10KM LABEL REGIONAL179DUQUESNOYXavier243196313V2164M00:44:57.28
10KM LABEL REGIONAL180BUSSIEREPIERRE-OLIVIER92198372SE165M00:45:00.01
10KM LABEL REGIONAL181VAN CAEMERBEKEJérôme552197862V1166M00:45:04.53
10KM LABEL REGIONAL182GUYONPaul289199173SE167M00:45:04.82
10KM LABEL REGIONAL183LAURENTSTEPHANE1898827797197463V1168M00:45:05.44US MARQUETTE
10KM LABEL REGIONAL184TORQUEFABRICE2021781544196814V2169M00:45:06.16VILLENEUVE D ASCQ FRETIN ATHLETISME
10KM LABEL REGIONAL185FONTAINEFrancois634196215V2170M00:45:07.79
10KM LABEL REGIONAL186DERYMFRANCOIS745197764V1171M00:45:10.13
10KM LABEL REGIONAL187PAYELLENicolas457198174SE172M00:45:11.47COURIR A COMINES
10KM LABEL REGIONAL188FLORENTFrederic261197975SE173M00:45:12.79
10KM LABEL REGIONAL189WILSDavid1658470598197865V1174M00:45:13.96JOGGING AVENTURE RONCQUOISE
10KM LABEL REGIONAL190BLAINFabriceT30649551197866V1175M00:45:17.22PASS'RUNNING
10KM LABEL REGIONAL191DECLEMYOlivier162197976SE176M00:45:20.94
10KM LABEL REGIONAL192VOETENFabien2044869648197867V1177M00:45:23.04US MARQUETTE
10KM LABEL REGIONAL193LAFORCERudy685196216V2178M00:45:25.38
10KM LABEL REGIONAL194MASSCHELEINEdouard399198177SE179M00:45:26.22
10KM LABEL REGIONAL195CARLIERRomain202359799199378SE180M00:45:29.48US VALENCIENNES ATHLETISME
10KM LABEL REGIONAL196CICHYVincent122199079SE181M00:45:35.74
10KM LABEL REGIONAL197PUMAJosé475197668V1182M00:45:37.35
10KM LABEL REGIONAL198PROUVOSTGuillaume470197369V1183M00:45:38.26
10KM LABEL REGIONAL199CARPENTIERHélène104919829SE16F00:45:39.72
10KM LABEL REGIONAL200MBULUNGUBrice408199480SE184M00:45:40.68
10KM LABEL REGIONAL201LAURENTSébastien337197370V1185M00:45:41.73
10KM LABEL REGIONAL202DHAEYERPALMYRE110319962ES17F00:45:42.36
10KM LABEL REGIONAL203PAVOTLaurent456197771V1186M00:45:44.75
10KM LABEL REGIONAL204ARGATUMihai11197772V1187M00:45:44.97
10KM LABEL REGIONAL205BRACQAureliena08857c629197873V1188M00:45:47.29HALLUIN TRIATHLON
10KM LABEL REGIONAL206DELVALGregoire194198781SE189M00:45:47.81
10KM LABEL REGIONAL207LENOBLEPATRICK361197174V1190M00:45:47.84RUNDAYS
10KM LABEL REGIONAL208ROPPAARNAUD787197475V1191M00:45:56.10
10KM LABEL REGIONAL209VAILLANTDorothée1275198310SE18F00:45:58.79FFC AG2R LA MONDIALE
10KM LABEL REGIONAL210THOREZBruno625196717V2192M00:46:00.40AJC FRELINGHIEN
10KM LABEL REGIONAL211TRONETJulien546197982SE193M00:46:00.57
10KM LABEL REGIONAL212COSSEMENTFREDERIC292491702196118V2194M00:46:04.66LILLE METROPOLE ATHLETISME
10KM LABEL REGIONAL213SINTIVEJules520198883SE195M00:46:05.43
10KM LABEL REGIONAL214COMBELeo607011ES196M00:46:07.22
10KM LABEL REGIONAL215BUFQUINTimothee89197676V1197M00:46:07.49
10KM LABEL REGIONAL216TAMPIGNYColleen128919991JU19F00:46:07.79
10KM LABEL REGIONAL217PANIFabien624197477V1198M00:46:08.64quesnoy pour tous les temps
10KM LABEL REGIONAL218GREGORADRIEN282198084SE199M00:46:09.43
10KM LABEL REGIONAL219WILLOTBaptiste597198985SE200M00:46:19.13
10KM LABEL REGIONAL220AGACHEMaxime756198086SE201M00:46:20.65
10KM LABEL REGIONAL221GRENIERFranck283197378V1202M00:46:29.54
10KM LABEL REGIONAL222RONVELARMAND127301549320014CA203M00:46:37.07LILLE METROPOLE ATHLETISME
10KM LABEL REGIONAL223WARLOUZETJohan592198087SE204M00:46:38.95
10KM LABEL REGIONAL224TESSARECHPAUL ANDRE744196419V2205M00:46:39.50
10KM LABEL REGIONAL225BOCQUETCorentin54198788SE206M00:46:41.03
10KM LABEL REGIONAL226LOSFELDAYMERIC1483082820197379V1207M00:46:42.84US MARQUETTE
10KM LABEL REGIONAL227BALLYALEXANDRE1620006JU208M00:46:44.54
10KM LABEL REGIONAL228POISSONNIERDAVID466197280V1209M00:46:46.62COURIR A COMINES
10KM LABEL REGIONAL229THORELDAVID801196981V1210M00:46:52.10
10KM LABEL REGIONAL230AGNERAYMatthieu3197782V1211M00:46:54.93
10KM LABEL REGIONAL231COPPINJEROME748197583V1212M00:46:58.88
10KM LABEL REGIONAL232VISINISTEPHANE586197084V1213M00:47:01.49
10KM LABEL REGIONAL233BRUNINSébastien87197989SE214M00:47:02.21
10KM LABEL REGIONAL234WEILThierry1866704594196620V2215M00:47:06.17JOGGING AVENTURE RONCQUOISE
10KM LABEL REGIONAL235CAPPOENCoralie1045198511SE20F00:47:09.02
10KM LABEL REGIONAL236HEROGUELLESébastien302197285V1216M00:47:10.25
10KM LABEL REGIONAL237BIESBROUCKJerome195831947198790SE217M00:47:12.93PLANETE RUNNING AND WALKING
10KM LABEL REGIONAL238DARDEBenjamin144199191SE218M00:47:12.98
10KM LABEL REGIONAL239SUBRENATGregory763198192SE219M00:47:14.28
10KM LABEL REGIONAL240BERQUEMARC43197286V1220M00:47:17.44
10KM LABEL REGIONAL241THIRIEZMartin537198593SE221M00:47:19.04
10KM LABEL REGIONAL242DJEDAEric228196521V2222M00:47:20.15
10KM LABEL REGIONAL243LE GOUBEYAntoine341199594SE223M00:47:23.25
10KM LABEL REGIONAL244DELVALAlexandre526567193199095SE224M00:47:24.71PLANETE RUNNING AND WALKING
10KM LABEL REGIONAL245CARREBenjamin1876099102198696SE225M00:47:27.28US MARQUETTE
10KM LABEL REGIONAL246JASPARTRomain319199197SE226M00:47:31.49
10KM LABEL REGIONAL247LALEUCorentin329199298SE227M00:47:35.05ASSO DU RAVENSBERG
10KM LABEL REGIONAL248DUBROMELDavid232198899SE228M00:47:36.61
10KM LABEL REGIONAL249DESTOMBESDamien1117400217197387V1229M00:47:41.70LILLE METROPOLE ATHLETISME
10KM LABEL REGIONAL250LEMANAnthony7171980100SE230M00:47:44.37
10KM LABEL REGIONAL251MAITRIASJean-Paul389196322V2231M00:47:47.93
10KM LABEL REGIONAL252MOREELSJEAN FRANCOIS426197188V1232M00:47:48.72
10KM LABEL REGIONAL253DE CRESCENZOArnaud1511981101SE233M00:47:49.84
10KM LABEL REGIONAL254BALLYNicolas17197689V1234M00:47:51.42
10KM LABEL REGIONAL255CHANTRELThibaut1161987102SE235M00:47:54.67
10KM LABEL REGIONAL256BARAHMélissa1008199312SE21F00:47:55.23
10KM LABEL REGIONAL257BEAUDETCHRISTOPHE1448870714196823V2236M00:47:55.93OSM LOMME ATHLETISME
10KM LABEL REGIONAL258DEBAILLON-VESQUESylvain1581989103SE237M00:47:55.97
10KM LABEL REGIONAL259DELECOURTDavid667197590V1238M00:47:56.98
10KM LABEL REGIONAL260BOUBAYChristophe661984104SE239M00:47:57.10
10KM LABEL REGIONAL261COLPAERTSamuel127197591V1240M00:47:57.86
10KM LABEL REGIONAL262KORPALSébastien324197492V1241M00:48:00.45
10KM LABEL REGIONAL263HOFFMANNMaxime307197793V1242M00:48:00.59
10KM LABEL REGIONAL264GHESQUIEREMichael272199812ES243M00:48:01.54
10KM LABEL REGIONAL265CATOIREStephane672196724V2244M00:48:02.10
10KM LABEL REGIONAL266DESROUSSEAUXAlexandre2121979105SE245M00:48:03.51RUNNING NEUVILLE EN FERRAIN
10KM LABEL REGIONAL267FRACASDamien2651983106SE246M00:48:06.01FAW
10KM LABEL REGIONAL268DELOURMEDamien1901983107SE247M00:48:06.96
10KM LABEL REGIONAL269DEUZÉAntoine219199613ES248M00:48:07.22
10KM LABEL REGIONAL270PLATEAUFREDERIC1812549784197794V1249M00:48:07.46PLANETE RUNNING AND WALKING
10KM LABEL REGIONAL271COGILOVO-CATEAUPerrine1314198113SE22F00:48:08.84
10KM LABEL REGIONAL272VANBERGUEMaureen127819767V123F00:48:09.52
10KM LABEL REGIONAL273ROBINJeremy15581934891988108SE250M00:48:10.41US VALENCIENNES ATHLETISME
10KM LABEL REGIONAL274AILLARDAntoine41991109SE251M00:48:13.05
10KM LABEL REGIONAL275PRUDHOMMEStephane1661212472197095V1252M00:48:13.20JOGGING AVENTURE RONCQUOISE
10KM LABEL REGIONAL276THESSIEUEnzo53420025CA253M00:48:14.18JOGGING AVENTURE RONCQUOISE
10KM LABEL REGIONAL277SANCTORUMStevie5081990110SE254M00:48:17.45ENDURANCE TEAM MOUSCRON
10KM LABEL REGIONAL278JACQUEMARTThierry318196025V2255M00:48:18.07
10KM LABEL REGIONAL279CREVITSANTOINE7321990111SE256M00:48:22.34
10KM LABEL REGIONAL280EBERSBERGERPHILIPPE25219561V3257M00:48:23.96
10KM LABEL REGIONAL281MORYArnaud429196726V2258M00:48:24.69
10KM LABEL REGIONAL282DIONISLUC809196527V2259M00:48:26.32
10KM LABEL REGIONAL283BONNELLouis60819997JU260M00:48:26.95
10KM LABEL REGIONAL284MELCHIORJean Romain409014ES261M00:48:30.16
10KM LABEL REGIONAL285DE LAFORCADEGUILLAUME1521979112SE262M00:48:30.34
10KM LABEL REGIONAL286LACQUEMENTLaurent430146328196996V1263M00:48:30.96LILLE METROPOLE ATHLETISME
10KM LABEL REGIONAL287COULONPatrice641196828V2264M00:48:32.28
10KM LABEL REGIONAL288LAMBERTEdouard762197097V1265M00:48:32.82
10KM LABEL REGIONAL289CANNIAUXDELPHINE104319788V124F00:48:34.32
10KM LABEL REGIONAL290FILLASTREFABIEN746196998V1266M00:48:35.73
10KM LABEL REGIONAL291FENETPierre2581979113SE267M00:48:36.25
10KM LABEL REGIONAL292ALLOUCHERYJean-Luc5196829V2268M00:48:37.27
10KM LABEL REGIONAL293MASSIASGuillaume4011986114SE269M00:48:40.79
10KM LABEL REGIONAL294TIBERGHIENHenri539197199V1270M00:48:42.41
10KM LABEL REGIONAL295?DOSSARD#741741015ES271M00:48:43.81
10KM LABEL REGIONAL296LACHERIEGAUTIER8151985115SE272M00:48:46.67
10KM LABEL REGIONAL297MAILLARDCélia1201199314SE25F00:48:46.89
10KM LABEL REGIONAL298DE MAILLARDThibault1531985116SE273M00:48:47.72
10KM LABEL REGIONAL299DELETREZFabien12235721831973100V1274M00:48:48.44AC WAMBRECHIES
10KM LABEL REGIONAL300CATTEAULaurent665196830V2275M00:48:49.98
10KM LABEL REGIONAL301HOPPENOTJean6611974101V1276M00:48:50.94
10KM LABEL REGIONAL302CALLEWAERTThierry94196631V2277M00:48:51.65
10KM LABEL REGIONAL303RAMOSThomas4801992117SE278M00:48:53.25LEERS OS
10KM LABEL REGIONAL304DUCOURANTCHRISTOPHE7521973102V1279M00:48:53.64
10KM LABEL REGIONAL305CARTONFabien1051980118SE280M00:48:53.87
10KM LABEL REGIONAL306BASTIENAndre1987695251989119SE281M00:48:55.24US MARQUETTE
10KM LABEL REGIONAL307ROQUEDidier4941971103V1282M00:48:56.71
10KM LABEL REGIONAL308DEWITTEPEGGY110219789V126F00:48:57.28
10KM LABEL REGIONAL309BRETONGAETAN8101976104V1283M00:48:58.29
10KM LABEL REGIONAL310PASSERIPauline1225198615SE27F00:48:58.93
10KM LABEL REGIONAL311MICHALSKINICOLAS4151984120SE284M00:48:59.33
10KM LABEL REGIONAL312MAILLARDLeopold65819998JU285M00:49:03.75
10KM LABEL REGIONAL313MONGEOISFrançois4221979121SE286M00:49:04.87
10KM LABEL REGIONAL314PEENAERTJustine122619963ES28F00:49:07.43ASSO DU RAVENSBERG
10KM LABEL REGIONAL315FLOUGQuentin2621991122SE287M00:49:08.21
10KM LABEL REGIONAL316CAULLIEZAlexandre1121993123SE288M00:49:09.86
10KM LABEL REGIONAL317BAXThierry47874229196632V2289M00:49:10.60CS IBM Nord-Normandie
10KM LABEL REGIONAL318DECOTTEGNIEPierre683199816ES290M00:49:11.63
10KM LABEL REGIONAL319BOUDENOOTJulien691976105V1291M00:49:14.45
10KM LABEL REGIONAL320ROYEBenjamin50220009JU292M00:49:17.39
10KM LABEL REGIONAL321MONTEYNECedric19651724241971106V1293M00:49:17.54JOGGING AVENTURE RONCQUOISE
10KM LABEL REGIONAL322CHAPALAINFlorian1171980124SE294M00:49:19.54
10KM LABEL REGIONAL323DESCAMPSLAURENT210196333V2295M00:49:20.47
10KM LABEL REGIONAL324HNATIUKMATTHIEU7511985125SE296M00:49:21.97
10KM LABEL REGIONAL325PAQUETNicolas4521979126SE297M00:49:24.46
10KM LABEL REGIONAL326BLANCKEMaxime521989127SE298M00:49:26.27
10KM LABEL REGIONAL327DELANNOYVincent1771973107V1299M00:49:29.53
10KM LABEL REGIONAL328DUVERGÉArnaud6011973108V1300M00:49:31.12
10KM LABEL REGIONAL329WINNAERTStéphane599196734V2301M00:49:31.32
10KM LABEL REGIONAL330LARGILLIERDOMINIQUE1152245737196435V2302M00:49:32.19JOGGING AVENTURE RONCQUOISE
10KM LABEL REGIONAL331MAYRANDOlivier645017ES303M00:49:33.52
10KM LABEL REGIONAL332NAJIHRahal626196336V2304M00:49:33.68
10KM LABEL REGIONAL333HONOREAlexis3091980128SE305M00:49:38.78
10KM LABEL REGIONAL334LEBONChristian976443343196237V2306M00:49:39.84PLANETE RUNNING AND WALKING
10KM LABEL REGIONAL335DESANGLOISMarc689018ES307M00:49:42.93
10KM LABEL REGIONAL336COULONJulien1351993129SE308M00:49:44.84
10KM LABEL REGIONAL337BRABANTDelphine1308197610V129F00:49:46.88
10KM LABEL REGIONAL338LOCQUETNathalie1807457119619611V230F00:49:47.80US MARQUETTE
10KM LABEL REGIONAL339CANFINCHLOE135519964ES31F00:49:48.22
10KM LABEL REGIONAL340DELIGNEJEREMY1871984130SE309M00:49:48.82
10KM LABEL REGIONAL341BERAULTLoic411975109V1310M00:49:50.96
10KM LABEL REGIONAL342SANCTORUMJimmy5071991131SE311M00:49:53.81
10KM LABEL REGIONAL343GAYMAYJacques17109327019552V3312M00:49:56.46COURIR ENSEMBLE SNCF
10KM LABEL REGIONAL344KELLERXavier13724936431975110V1313M00:50:03.19US MARQUETTE
10KM LABEL REGIONAL345RUEVivien6141986132SE314M00:50:03.76
10KM LABEL REGIONAL346LAMBLINBénédicte1166197511V132F00:50:03.84COURIR A LINSELLES
10KM LABEL REGIONAL347BOUTOILLEGaelle1032198216SE33F00:50:04.38
10KM LABEL REGIONAL348COUILLEROTFranck1331974111V1315M00:50:05.08
10KM LABEL REGIONAL349VANKEMELBERNARD739196538V2316M00:50:06.04
10KM LABEL REGIONAL350RICQUEBOURGChristian486196739V2317M00:50:06.34
10KM LABEL REGIONAL351DEBAILLEULJEAN PHILIPPE1571989133SE318M00:50:09.20
10KM LABEL REGIONAL352LAURENTJean-Baptiste3361987134SE319M00:50:10.21
10KM LABEL REGIONAL353DUHAMELFabien2361986135SE320M00:50:10.99
10KM LABEL REGIONAL354HERNAULTGuillaume3001989136SE321M00:50:15.67LILLE TRIATHLON
10KM LABEL REGIONAL355SAUVAGEJeremy5131983137SE322M00:50:17.03
10KM LABEL REGIONAL356COQUELETPauline1057198417SE34F00:50:20.17
10KM LABEL REGIONAL357LEPEREBenoit3621977112V1323M00:50:20.78
10KM LABEL REGIONAL358BRANDSebastien801978113V1324M00:50:21.38
10KM LABEL REGIONAL359CAMPIONTHEO713199819ES325M00:50:23.74
10KM LABEL REGIONAL360POLLETJEAN GUILLAUME6961982138SE326M00:50:24.45
10KM LABEL REGIONAL361VALTONVictor5501992139SE327M00:50:27.66
10KM LABEL REGIONAL362BOURRESylvia1031198418SE35F00:50:29.18
10KM LABEL REGIONAL363MANTELJerome3951974114V1328M00:50:31.07
10KM LABEL REGIONAL364DENNINFREDERIC1991972115V1329M00:50:31.22
10KM LABEL REGIONAL365JEZEQUELKévin3201992140SE330M00:50:31.63
10KM LABEL REGIONAL366GROOTMatthias285199620ES331M00:50:32.56
10KM LABEL REGIONAL367BOURLETSIMON8191994141SE332M00:50:34.86
10KM LABEL REGIONAL368DEVYNCKFREDERIC7271974116V1333M00:50:36.27US TOURCOING
10KM LABEL REGIONAL369DUTHILLEULMathieu2481985142SE334M00:50:38.11
10KM LABEL REGIONAL370DE SMEDTREMI7711986143SE335M00:50:40.95
10KM LABEL REGIONAL371LETAILLEURTANGUY3711989144SE336M00:50:42.81
10KM LABEL REGIONAL372SEEGMULLERNicolas6191969117V1337M00:50:44.74
10KM LABEL REGIONAL373MATONLudovic4021985145SE338M00:50:45.30
10KM LABEL REGIONAL374DERCKStephanie5773831091198919SE36F00:50:45.50LILLE METROPOLE ATHLETISME
10KM LABEL REGIONAL375LORTHOISPierre3811987146SE339M00:50:45.76
10KM LABEL REGIONAL376LALOYERBertrand3301974118V1340M00:50:46.78
10KM LABEL REGIONAL377LOTIGIEGERY766196340V2341M00:50:48.35
10KM LABEL REGIONAL378BOULANGERPhilippe70196441V2342M00:50:48.73COURIR ENSEMBLE SNCF
10KM LABEL REGIONAL379DEJARDINJean Yves664196642V2343M00:50:52.86
10KM LABEL REGIONAL380LEMAIREJérôme3571980147SE344M00:50:54.24
10KM LABEL REGIONAL381VILLENEUVEDaphnée1286197012V137F00:50:58.67
10KM LABEL REGIONAL382BREMERSebastien6381970119V1345M00:50:59.28
10KM LABEL REGIONAL383BERNYLOIC7381982148SE346M00:50:59.99
10KM LABEL REGIONAL384SCHOUTTETENAnthony6901985149SE347M00:51:03.81
10KM LABEL REGIONAL385ANTHONESTEPHANE7341972120V1348M00:51:06.03
10KM LABEL REGIONAL386SZIJJLaurie1258198320SE38F00:51:08.98
10KM LABEL REGIONAL387LENOBLEClément360199721ES349M00:51:10.23
10KM LABEL REGIONAL388BOKINIHonoré591990150SE350M00:51:12.51
10KM LABEL REGIONAL389BOMPARDJules148570562199910JU351M00:51:14.98ATHLE HALLUIN-VAL-DE-LYS
10KM LABEL REGIONAL390FELTZVICTOR755199822ES352M00:51:16.18
10KM LABEL REGIONAL391FELTZFIX754196843V2353M00:51:16.64
10KM LABEL REGIONAL392MAIGNONLuc3881979151SE354M00:51:22.92
10KM LABEL REGIONAL393LHEUREUXChloé1193198921SE39F00:51:23.15
10KM LABEL REGIONAL394OKATJOFFRAN4461986152SE355M00:51:24.06
10KM LABEL REGIONAL395HELLEMANSVINCENT2961977121V1356M00:51:24.54
10KM LABEL REGIONAL396JOURDANTDenys6101972122V1357M00:51:25.50
10KM LABEL REGIONAL397DUMOULINGaetan2381993153SE358M00:51:26.80BASKET CLUB NIEPPE
10KM LABEL REGIONAL398NUTTINAnne-sophie16758831220197413V140F00:51:27.41HEM ATHLETIC CLUB
10KM LABEL REGIONAL399VALOLoic5491969123V1359M00:51:27.56
10KM LABEL REGIONAL400BERNARDLaurent6661971124V1360M00:51:27.96
10KM LABEL REGIONAL401JOURDANTJustin61120026CA361M00:51:28.16
10KM LABEL REGIONAL402CODRONBERNARD79819583V3362M00:51:29.49
10KM LABEL REGIONAL403MALHERBEAntoine3921987154SE363M00:51:31.55
10KM LABEL REGIONAL404MIEYEVILLEArnaud4171977125V1364M00:51:36.29
10KM LABEL REGIONAL405VERFAILLEArnaud5741978126V1365M00:51:39.05RUNNING NEUVILLE EN FERRAIN
10KM LABEL REGIONAL406VANDECASTEELEGuillaume5571983155SE366M00:51:40.46
10KM LABEL REGIONAL407DELEUDavid1841972127V1367M00:51:42.75
10KM LABEL REGIONAL408LESAFFRECLARISSE12263211189199522SE41F00:51:43.29RACING CLUB NANTAIS
10KM LABEL REGIONAL409LESAFFREEric1671348367196744V2368M00:51:43.98AC WAMBRECHIES
10KM LABEL REGIONAL410SANDEVOIRAlexis5091976128V1369M00:51:45.50
10KM LABEL REGIONAL411DEBUFDavid6561970129V1370M00:51:48.44
10KM LABEL REGIONAL412VARETGermain5661988156SE371M00:51:49.45
10KM LABEL REGIONAL413MAERTENVincent3861990157SE372M00:51:50.28
10KM LABEL REGIONAL414RODRIGUEZALVARO7051985158SE373M00:51:52.75
10KM LABEL REGIONAL415JOMVILLEARNAUD806196645V2374M00:51:53.69
10KM LABEL REGIONAL416LETELLIERBruno37219534V3375M00:51:53.76
10KM LABEL REGIONAL417SAUVAGEHENRY5121985159SE376M00:51:55.14
10KM LABEL REGIONAL418PIETINJean-Loup4621980160SE377M00:51:55.74
10KM LABEL REGIONAL419MARQUETTEISABELLE120619682V242F00:51:57.99
10KM LABEL REGIONAL420DOUVRYChristophe6731975130V1378M00:51:58.91
10KM LABEL REGIONAL421MULLEVincent4341988161SE379M00:52:00.89
10KM LABEL REGIONAL422VAN CENEBRUCKINES1329199023SE43F00:52:01.78
10KM LABEL REGIONAL423DESROUSSEAUXJulien2131989162SE380M00:52:04.16
10KM LABEL REGIONAL424STELANDREFrancois6801972131V1381M00:52:11.78
10KM LABEL REGIONAL425MALFAISANLéa17298381204198824SE44F00:52:12.30LILLE METROPOLE ATHLETISME
10KM LABEL REGIONAL426DELALINJeremy6551975132V1382M00:52:14.06
10KM LABEL REGIONAL427THESSIEUChristophe1789121533196746V2383M00:52:15.95JOGGING AVENTURE RONCQUOISE
10KM LABEL REGIONAL428TRENTESEAUXCLAIRE1332199325SE45F00:52:17.17
10KM LABEL REGIONAL429VAN INGELANDTAymeric5531994163SE384M00:52:17.52
10KM LABEL REGIONAL430DUHAMELAnne-Céline1111198826SE46F00:52:19.43
10KM LABEL REGIONAL431BECARTMatthieu311984164SE385M00:52:19.75
10KM LABEL REGIONAL432DEWAVRINChristine1317197514V147F00:52:21.52
10KM LABEL REGIONAL433DEVREDFrederic19761372221971133V1386M00:52:22.41JOGGING AVENTURE RONCQUOISE
10KM LABEL REGIONAL434NORTIERLUC20538894431971134V1387M00:52:22.93PLANETE RUNNING AND WALKING
10KM LABEL REGIONAL435BAUXLouis-Victor27199823ES388M00:52:24.05
10KM LABEL REGIONAL436DEI TIGLILAURENT1701978135V1389M00:52:26.56
10KM LABEL REGIONAL437FLAMAUTANTOINE7421982165SE390M00:52:36.11
10KM LABEL REGIONAL438CHOMBEAUClaire1053199327SE48F00:52:37.43
10KM LABEL REGIONAL439HONOREValerie1153197415V149F00:52:38.53COURIR A LINSELLES
10KM LABEL REGIONAL440VANDOOLAEGHEDavid7161971136V1391M00:52:38.89
10KM LABEL REGIONAL441ROUSSEAUXNicolas6811986166SE392M00:52:40.36
10KM LABEL REGIONAL442DURANDPascal2451972137V1393M00:52:40.66
10KM LABEL REGIONAL443PATERNELLEMathieuT3046404531977138V1394M00:52:41.16PASS'RUNNING
10KM LABEL REGIONAL444SZYMONIAKLeon120649452819555V3395M00:52:42.80CS IBM Nord-Normandie
10KM LABEL REGIONAL445DEPOILLYHerve201196747V2396M00:52:42.95
10KM LABEL REGIONAL446DARGIERFrédéric1461985167SE397M00:52:43.74
10KM LABEL REGIONAL447SIONANTHONY521196448V2398M00:52:46.04
10KM LABEL REGIONAL448GENTINAEmilie1298197316V150F00:52:46.06
10KM LABEL REGIONAL449AMALRICMichel806413719506V3399M00:52:46.98JOGGING AVENTURE RONCQUOISE
10KM LABEL REGIONAL450FENETAmandine1124198028SE51F00:52:47.30
10KM LABEL REGIONAL451CLOARTBaptiste1251989168SE400M00:52:55.26
10KM LABEL REGIONAL452COOREVITSYVES793196449V2401M00:52:57.67
10KM LABEL REGIONAL453LEMAIRENicolas6701984169SE402M00:52:58.10
10KM LABEL REGIONAL454DEMUYNCKClement1971993170SE403M00:52:58.38
10KM LABEL REGIONAL455MARTINAuriane129220002JU52F00:52:58.97
10KM LABEL REGIONAL456BRUNETFABIEN86196650V2404M00:53:00.11
10KM LABEL REGIONAL457GROSSMANNThomas2861992171SE405M00:53:01.50
10KM LABEL REGIONAL458BARELLEBenoît201986172SE406M00:53:04.03
10KM LABEL REGIONAL459VANTYSDADTCHARLES8141989173SE407M00:53:04.16
10KM LABEL REGIONAL460GOUVERNELDelphine1137198629SE53F00:53:05.55
10KM LABEL REGIONAL461LE FURAurélie1171199030SE54F00:53:07.29
10KM LABEL REGIONAL462VERDIEREREMY57220017CA408M00:53:11.50
10KM LABEL REGIONAL463LEPERESteeve3631984174SE409M00:53:13.78
10KM LABEL REGIONAL464BLAUWARTBoris531978139V1410M00:53:15.20
10KM LABEL REGIONAL465PAMARTJulien4511989175SE411M00:53:15.53
10KM LABEL REGIONAL466CAPONPASCALT30639798195951V2412M00:53:17.57PASS'RUNNING
10KM LABEL REGIONAL467VILLERSDamien6401982176SE413M00:53:19.93
10KM LABEL REGIONAL468CHATELAINWILLIAM7861969140V1414M00:53:21.04
10KM LABEL REGIONAL469DAUCHEZDavid647196752V2415M00:53:21.54quesnoy pour tous les temps
10KM LABEL REGIONAL470MOYONChristophe4331978141V1416M00:53:22.09
10KM LABEL REGIONAL471COLPARETARTHUR72320028CA417M00:53:26.51
10KM LABEL REGIONAL472DEMARCQNicolas1961977142V1418M00:53:28.09
10KM LABEL REGIONAL473DA CLARAFABRICE709196753V2419M00:53:29.04
10KM LABEL REGIONAL474VAN LIEFDEMathieu5541981177SE420M00:53:29.92
10KM LABEL REGIONAL475FOURNIERGUY106375926419537V3421M00:53:32.38COURIR DANS LE LUMBROIS
10KM LABEL REGIONAL476BEGHINRodolphe618196354V2422M00:53:34.38
10KM LABEL REGIONAL477VERVACKALEXANDER8211975143V1423M00:53:36.48
10KM LABEL REGIONAL478CAMPOSGeoffrey961980178SE424M00:53:36.53
10KM LABEL REGIONAL479PEENAERTMélanie1227199231SE55F00:53:36.99
10KM LABEL REGIONAL480PILLEYvon46319548V3425M00:53:37.39
10KM LABEL REGIONAL481BLONDIAUXLAURENCE1361197317V156F00:53:37.48
10KM LABEL REGIONAL482DUHAMELClaire1112199332SE57F00:53:37.66
10KM LABEL REGIONAL483MOURCIAMikael4321980179SE426M00:53:38.84
10KM LABEL REGIONAL484ACCETTONEBruno567196855V2427M00:53:39.02
10KM LABEL REGIONAL485MAUBOURGUETSébastien4031979180SE428M00:53:40.72
10KM LABEL REGIONAL486VANHOLLEMEERSCHJoffrey5621988181SE429M00:53:41.16
10KM LABEL REGIONAL487TAILLEZJean-François5301969144V1430M00:53:44.35
10KM LABEL REGIONAL488LESAGEFélix3701986182SE431M00:53:46.63
10KM LABEL REGIONAL489BOURLEZBenoit6681970145V1432M00:53:49.74
10KM LABEL REGIONAL490KNAPENBENOIT8031974146V1433M00:53:49.82
10KM LABEL REGIONAL491SANGLIERGuillaume5101977147V1434M00:53:50.02
10KM LABEL REGIONAL492LEONARDMathieu6201980183SE435M00:53:50.16
10KM LABEL REGIONAL493MORDACQNICOLAS4251982184SE436M00:53:50.56
10KM LABEL REGIONAL494SULPICEKarine1256197718V158F00:53:52.75
10KM LABEL REGIONAL495LEPETITGEOFFREY3641990185SE437M00:53:59.80
10KM LABEL REGIONAL496DEJONCKÈREOlivier172196556V2438M00:54:00.70
10KM LABEL REGIONAL497BENSOUDA KORAICHIMOHAMMED729196657V2439M00:54:01.05
10KM LABEL REGIONAL498LAUTROUSYannick3381975148V1440M00:54:01.33
10KM LABEL REGIONAL499SCHOENFrédéric5161984186SE441M00:54:01.91
10KM LABEL REGIONAL500BOURREBenoît731982187SE442M00:54:02.26
10KM LABEL REGIONAL501MOUCHERONChristophe4301970149V1443M00:54:02.35
10KM LABEL REGIONAL502GUIVARCHCHRISTELLE1141197933SE59F00:54:03.30
10KM LABEL REGIONAL503LEMOUXOlivier3581977150V1444M00:54:03.64
10KM LABEL REGIONAL504STIEVENARDDavid5251969151V1445M00:54:07.67
10KM LABEL REGIONAL505ROBINEAUAlain637196658V2446M00:54:10.40
10KM LABEL REGIONAL506CAULLIEZFrançois113196459V2447M00:54:10.50
10KM LABEL REGIONAL507POTDEVINMartin4681991188SE448M00:54:10.82
10KM LABEL REGIONAL508VAN DE VOORDEChristophe659196360V2449M00:54:11.21
10KM LABEL REGIONAL509FABRICIOGabriel2541988189SE450M00:54:13.23
10KM LABEL REGIONAL510DECRUYENAEREPierre166196061V2451M00:54:13.60
10KM LABEL REGIONAL511MOMONTJEAN PAUL711196462V2452M00:54:16.42
10KM LABEL REGIONAL512LEGRANDFrederic3501974152V1453M00:54:18.11
10KM LABEL REGIONAL513MIGNOTSebastien682024ES454M00:54:18.60
10KM LABEL REGIONAL514DE SMEDTThomas6791986190SE455M00:54:19.53
10KM LABEL REGIONAL515FONTAINEAdrien26320019CA456M00:54:21.15
10KM LABEL REGIONAL516BOISNARDLudwig581980191SE457M00:54:22.18
10KM LABEL REGIONAL517VANALDERWERELDAnthony20056685551984192SE458M00:54:25.08HEM ATHLETIC CLUB
10KM LABEL REGIONAL518DUFOURLaurent2351983193SE459M00:54:29.11
10KM LABEL REGIONAL519LECLERCQPauline19799031175199334SE60F00:54:30.48US MARQUETTE
10KM LABEL REGIONAL520LOURMEAntoine7571978153V1460M00:54:30.49
10KM LABEL REGIONAL521DEVOSSELBertrand2211986194SE461M00:54:30.79
10KM LABEL REGIONAL522GORRIQUERGuillaume2801991195SE462M00:54:31.01
10KM LABEL REGIONAL523PAGETDOROTHE133419623V261F00:54:31.23
10KM LABEL REGIONAL524FIOLETGuillaume6131978154V1463M00:54:31.75RUNNING NEUVILLE EN FERRAIN
10KM LABEL REGIONAL525DESMETDamien2111974155V1464M00:54:31.80
10KM LABEL REGIONAL526MARTEMaxime3971991196SE465M00:54:32.07
10KM LABEL REGIONAL527HANICOTTEFlorent2941981197SE466M00:54:32.65
10KM LABEL REGIONAL528BARDINVictor191986198SE467M00:54:33.12
10KM LABEL REGIONAL529FERNANDEZAntonio-Lucas6231991199SE468M00:54:33.41
10KM LABEL REGIONAL530BOCQUETERIC726196163V2469M00:54:35.62US TOURCOING
10KM LABEL REGIONAL531VAMMACIGNOGiuseppe5511983200SE470M00:54:38.28
10KM LABEL REGIONAL532HIDOCQVanessa1150197819V162F00:54:38.79
10KM LABEL REGIONAL533MUYLLAERTNicolas4361984201SE471M00:54:40.84
10KM LABEL REGIONAL534CORTIANAMarc1311976156V1472M00:54:42.33
10KM LABEL REGIONAL535RODRIGUESPeggy10032041242197620V163F00:54:43.33ATHLE HALLUIN-VAL-DE-LYS
10KM LABEL REGIONAL536DELOECKERDorian1891985202SE473M00:54:44.08
10KM LABEL REGIONAL537WASTYNRémi5931986203SE474M00:54:44.57
10KM LABEL REGIONAL538VANDENHOVEBenoit5591984204SE475M00:54:45.66AS LFB
10KM LABEL REGIONAL539VANHOORDEMartial1866710563196364V2476M00:54:45.75JOGGING AVENTURE RONCQUOISE
10KM LABEL REGIONAL540DESSAUVAGESDorothée1096197321V164F00:54:46.00
10KM LABEL REGIONAL541DESSAUVAGESDavid2141972157V1477M00:54:46.21
10KM LABEL REGIONAL542DELEBARREMICHEL18119519V3478M00:54:48.77
10KM LABEL REGIONAL543HIDOCQBENOIT3051978158V1479M00:54:50.56
10KM LABEL REGIONAL544FRETINNICOLAS6981983205SE480M00:54:51.72
10KM LABEL REGIONAL545OBLEDLUCILLE1331196922V165F00:54:52.49
10KM LABEL REGIONAL546PATTEJulien4541990206SE481M00:54:52.70
10KM LABEL REGIONAL547TONONOlivier5431975159V1482M00:54:52.92
10KM LABEL REGIONAL548DARRASLaurent147196565V2483M00:54:53.95
10KM LABEL REGIONAL549PAMARTIngrid1224196923V166F00:54:53.98
10KM LABEL REGIONAL550LECOMTEMaxime3461988207SE484M00:54:54.76
10KM LABEL REGIONAL551BAGOUGregory141983208SE485M00:54:55.50
10KM LABEL REGIONAL552VANNESTELAURENT16031987031972160V1486M00:54:57.78US MARQUETTE
10KM LABEL REGIONAL553SOMMELETValerie1252197624V167F00:55:02.54
10KM LABEL REGIONAL554HUBAUTNICOLAS312200011JU487M00:55:06.64
10KM LABEL REGIONAL555LAURENCELAUGUSTIN697199825ES488M00:55:14.71
10KM LABEL REGIONAL556BONNIERAnais20643981029198535SE68F00:55:16.45LILLE METROPOLE ATHLETISME
10KM LABEL REGIONAL557VIRGONELeonardo5851974161V1489M00:55:19.15
10KM LABEL REGIONAL558LEONARDPIERRE7401972162V1490M00:55:21.09
10KM LABEL REGIONAL559CAPELLEChristelle1376216104419684V269F00:55:23.51JOGGING AVENTURE RONCQUOISE
10KM LABEL REGIONAL560WERQUINSABINE132419685V270F00:55:23.76
10KM LABEL REGIONAL561THIRARDLaurence1265197125V171F00:55:23.96
10KM LABEL REGIONAL562MOMONTCorentin4211992209SE491M00:55:27.90
10KM LABEL REGIONAL563DHEDINDavid585149225196666V2492M00:55:29.06CS IBM Nord-Normandie
10KM LABEL REGIONAL564HERNIEJean Luc179209301196267V2493M00:55:31.41PLANETE RUNNING AND WALKING
10KM LABEL REGIONAL565COCHINEric1839941126196568V2494M00:55:35.74PLANETE RUNNING AND WALKING
10KM LABEL REGIONAL566BAEYENSGregory1742047131977163V1495M00:55:36.71PLANETE RUNNING AND WALKING
10KM LABEL REGIONAL567DUBOISJulien2311978164V1496M00:55:37.57
10KM LABEL REGIONAL568DEBONNEMATTHIEU1601975165V1497M00:55:37.68
10KM LABEL REGIONAL569ROUSSELJULIEN4991991210SE498M00:55:39.75
10KM LABEL REGIONAL570POTINJulie122820011CA72F00:55:42.12AC MARCQUOIS
10KM LABEL REGIONAL571CATTEAUChristophe109196469V2499M00:55:42.60
10KM LABEL REGIONAL572HADDADNasser20567012901988211SE500M00:55:44.24VILLENEUVE D ASCQ FRETIN ATHLETISME
10KM LABEL REGIONAL573OPIGEZFrédéric4471976166V1501M00:55:45.51
10KM LABEL REGIONAL574COUVREURSandrine1059197526V173F00:55:47.37
10KM LABEL REGIONAL575DELCAMBRENathalie1082197327V174F00:55:48.63
10KM LABEL REGIONAL576POLLETJérémie4671991212SE502M00:55:49.79RUNNERS EN NORD
10KM LABEL REGIONAL577DAVRINCHEPaul1491982213SE503M00:55:51.66
10KM LABEL REGIONAL578TAILLAINTGautier5291988214SE504M00:55:56.00
10KM LABEL REGIONAL579HENDRICXLionel2971986215SE505M00:56:03.43
10KM LABEL REGIONAL580DURETETEDamien246196270V2506M00:56:05.08
10KM LABEL REGIONAL581OUNSaurya4491981216SE507M00:56:06.20
10KM LABEL REGIONAL582PLUQUETGOFFREY722200210CA508M00:56:06.69
10KM LABEL REGIONAL583DE NOOSEBenjamin1551979217SE509M00:56:06.98
10KM LABEL REGIONAL584VANNESTEFRANCK8001975167V1510M00:56:10.02
10KM LABEL REGIONAL585VERONLoic5781970168V1511M00:56:11.59
10KM LABEL REGIONAL586RABAULAURENCE133619616V275F00:56:13.03
10KM LABEL REGIONAL587DEMANJean Philippe195196571V2512M00:56:16.73
10KM LABEL REGIONAL588LEDEZSandrine117719677V276F00:56:17.14
10KM LABEL REGIONAL589MERIAUXLaurent411196672V2513M00:56:17.14
10KM LABEL REGIONAL590LECOCQLAETITIA1176198136SE77F00:56:17.52
10KM LABEL REGIONAL591ICARDMathildeT3063971154197828V178F00:56:22.92
10KM LABEL REGIONAL592VANHILLELoïc5611975169V1514M00:56:24.02
10KM LABEL REGIONAL593BANACHAUDREY1007198037SE79F00:56:24.23
10KM LABEL REGIONAL594SANNIERFrederic511196773V2515M00:56:25.18
10KM LABEL REGIONAL595PUKICAClément20086424731993218SE516M00:56:26.62VILLENEUVE D ASCQ FRETIN ATHLETISME
10KM LABEL REGIONAL596TIBERGHIENJules541200012JU517M00:56:26.67
10KM LABEL REGIONAL597DELCOURCLEMENCE1357199338SE80F00:56:27.30
10KM LABEL REGIONAL598WYNDAELEMarc60419412V4518M00:56:29.88
10KM LABEL REGIONAL599GODBERTMathieu2771980219SE519M00:56:30.33
10KM LABEL REGIONAL600VANWAMBEKEJulien5641982220SE520M00:56:33.74
10KM LABEL REGIONAL601GAMOTFABRICE7651973170V1521M00:56:35.17
10KM LABEL REGIONAL602DABINJean-Yves141195310V3522M00:56:35.59
10KM LABEL REGIONAL603WAELESAurelien6601982221SE523M00:56:36.18
10KM LABEL REGIONAL604VIENNEGREGOIRE5801984222SE524M00:56:36.26
10KM LABEL REGIONAL605AMINIMohamed8196674V2525M00:56:36.30
10KM LABEL REGIONAL606CAROËNPatrice101196575V2526M00:56:36.60
10KM LABEL REGIONAL607TEBARYannick134419688V281F00:56:36.70
10KM LABEL REGIONAL608SCALBERTJoséphine124519985ES82F00:56:37.10
10KM LABEL REGIONAL609MALFOYJulien3911981223SE527M00:56:38.21
10KM LABEL REGIONAL610SELOSSERichard2058050517196876V2528M00:56:38.88PLANETE RUNNING AND WALKING
10KM LABEL REGIONAL611MARTINPauline1208199139SE83F00:56:40.39
10KM LABEL REGIONAL612GHESQUIERELéa1133199240SE84F00:56:41.18
10KM LABEL REGIONAL613TYBERGHIENMyriam173056127319531V385F00:56:41.48JOGGING AVENTURE RONCQUOISE
10KM LABEL REGIONAL614MERLIERGeoffrey4121987224SE529M00:56:42.28
10KM LABEL REGIONAL615VANDECASTEELEChloé1280198441SE86F00:56:42.73
10KM LABEL REGIONAL616DURAKLAURENT2441977171V1530M00:56:46.38
10KM LABEL REGIONAL617FATOUSylvain2561982225SE531M00:56:47.51
10KM LABEL REGIONAL618MAJEWSKIOlivier3901972172V1532M00:56:47.97JOG LEERS
10KM LABEL REGIONAL619GRUARTSébastien2871972173V1533M00:56:48.81
10KM LABEL REGIONAL620DELANNOYAntoine1751984226SE534M00:56:51.29
10KM LABEL REGIONAL621GOETHALSLudovic278196377V2535M00:56:52.28COURIR A LINSELLES
10KM LABEL REGIONAL622RIBEIROMaria1240198042SE87F00:56:52.91
10KM LABEL REGIONAL623DESNOULEZMATHILDE1094198943SE88F00:56:54.47
10KM LABEL REGIONAL624MAKRAGICMylène1202198744SE89F00:56:54.75
10KM LABEL REGIONAL625DEBEUNNELuc159195311V3536M00:56:58.07
10KM LABEL REGIONAL626LESAFFREMARTIN3681992227SE537M00:57:03.64
10KM LABEL REGIONAL627DURIEZEDOUARD LOUP7351993228SE538M00:57:04.19
10KM LABEL REGIONAL628DEFERTobias1671992229SE539M00:57:05.35
10KM LABEL REGIONAL629LEGIERDidier440101349195712V3540M00:57:06.90AC WAMBRECHIES
10KM LABEL REGIONAL630BUONGIORNOMichael911971174V1541M00:57:08.59
10KM LABEL REGIONAL631JACQUEMARTFrançoise115619639V290F00:57:12.02
10KM LABEL REGIONAL632DAELMANArnaud6511973175V1542M00:57:12.40
10KM LABEL REGIONAL633NEIRINCKJULINE1352199345SE91F00:57:14.71
10KM LABEL REGIONAL634MANOURYFabienne1304197129V192F00:57:16.43run sante
10KM LABEL REGIONAL635BOSTYNVirginie1296198246SE93F00:57:17.64
10KM LABEL REGIONAL636LOPEZRaphael380196578V2543M00:57:19.01
10KM LABEL REGIONAL637SIMONNicolas5191984230SE544M00:57:20.53
10KM LABEL REGIONAL638JOURDAINElodie1160198547SE94F00:57:20.96
10KM LABEL REGIONAL639VANDERMEERSCHSIHEM1366198448SE95F00:57:21.05
10KM LABEL REGIONAL640DEVOSSTEPHANE220196679V2545M00:57:21.15
10KM LABEL REGIONAL641LEVEUGLEValentine1192199149SE96F00:57:21.62
10KM LABEL REGIONAL642DUPONTIsabelle1117196510V297F00:57:22.06
10KM LABEL REGIONAL643PROVOSTCéline1231197830V198F00:57:23.60
10KM LABEL REGIONAL644TORQUELAURENCE20218031271196811V299F00:57:24.70VILLENEUVE D ASCQ FRETIN ATHLETISME
10KM LABEL REGIONAL645VERSCHELDEJULIENT3034327881984231SE546M00:57:26.61PASS'RUNNING
10KM LABEL REGIONAL646DÉPREZMaxime2501988232SE547M00:57:30.09
10KM LABEL REGIONAL647TYTGATJustine1274199450SE100F00:57:33.45
10KM LABEL REGIONAL648LUCASJean francois385196880V2548M00:57:34.78
10KM LABEL REGIONAL649RICCIMarc508500484195013V3549M00:57:34.90COURIR ENSEMBLE SNCF
10KM LABEL REGIONAL650BONBénédicte1027199351SE101F00:57:36.16
10KM LABEL REGIONAL651BOMPARDEric193253861196881V2550M00:57:36.41JOGGING AVENTURE RONCQUOISE
10KM LABEL REGIONAL652GALERNEMichel266196882V2551M00:57:37.03COURIR A LINSELLES
10KM LABEL REGIONAL653BERAULT BODINSophie1018197531V1102F00:57:40.04
10KM LABEL REGIONAL654MOULINGeorges Eric4311979233SE552M00:57:41.76
10KM LABEL REGIONAL655DERACHEElodie1090198452SE103F00:57:42.87
10KM LABEL REGIONAL656QUIQUEPierre4781983234SE553M00:57:43.26
10KM LABEL REGIONAL657CHOCHOIMaxime1211983235SE554M00:57:48.07
10KM LABEL REGIONAL658GORONCELINE1135198853SE104F00:57:49.14
10KM LABEL REGIONAL659BARQUINEmilie1009198754SE105F00:57:53.14
10KM LABEL REGIONAL660HOCQUETElise1151198455SE106F00:57:54.20
10KM LABEL REGIONAL661RIQUETAlain Jerome4871973176V1555M00:57:55.04
10KM LABEL REGIONAL662WALLARTSébastienT3035415901983236SE556M00:57:56.20PASS'RUNNING
10KM LABEL REGIONAL663BOUTOILLEDidier74196483V2557M00:57:57.10
10KM LABEL REGIONAL664MOREAURita130019522V3107F00:57:57.84run sante
10KM LABEL REGIONAL665BOTHERELPierre-Gilles65196584V2558M00:57:59.24
10KM LABEL REGIONAL666VERMEULINEric5771969177V1559M00:58:00.21
10KM LABEL REGIONAL667DUMASAnnabelle1114198056SE108F00:58:00.81
10KM LABEL REGIONAL668GIRAUDONJEAN MARC778196185V2560M00:58:01.53
10KM LABEL REGIONAL669TIBERGHIENHortense126719976ES109F00:58:03.77
10KM LABEL REGIONAL670BASTIENNathalie1011197732V1110F00:58:03.97RUNNERS EN NORD
10KM LABEL REGIONAL671DECLERCQJean-luc163196186V2561M00:58:04.40
10KM LABEL REGIONAL672LEONARDMARIE BENEDICTE1337196933V1111F00:58:05.54
10KM LABEL REGIONAL673DELMAETLise1085197957SE112F00:58:10.74
10KM LABEL REGIONAL674HERLINMargaux1146199558SE113F00:58:15.04
10KM LABEL REGIONAL675DE BAROLETMathilde106720022CA114F00:58:15.66
10KM LABEL REGIONAL676CALLENSHélène1040198159SE115F00:58:15.74
10KM LABEL REGIONAL677CHAFFARDMathilde105020023CA116F00:58:15.95
10KM LABEL REGIONAL678STEPHANALEXIS768026ES562M00:58:16.84
10KM LABEL REGIONAL679CREVITSJEAN LUC733196287V2563M00:58:20.98
10KM LABEL REGIONAL680DECLERCQRomaine1070196512V2117F00:58:21.49
10KM LABEL REGIONAL681MASSENOTLUDOVIC20320464001982237SE564M00:58:22.34US MARQUETTE
10KM LABEL REGIONAL682DEPRAETEREAntoine2031992238SE565M00:58:23.52
10KM LABEL REGIONAL683ROUSSELFrederic4981969178V1566M00:58:24.30
10KM LABEL REGIONAL684PENNEQUINDIDIER736195614V3567M00:58:24.45
10KM LABEL REGIONAL685DUFONTPHILIPPE234195988V2568M00:58:26.76
10KM LABEL REGIONAL686ROUSSELLEElodie1243199260SE118F00:58:28.42
10KM LABEL REGIONAL687DELARUEJULIEN1781974179V1569M00:58:28.70
10KM LABEL REGIONAL688VEILLARDEugène56919413V4570M00:58:30.75
10KM LABEL REGIONAL689VERMERSCHPascal576196889V2571M00:58:33.20
10KM LABEL REGIONAL690DARTOISAntoine1481986239SE572M00:58:35.79
10KM LABEL REGIONAL691CICHYSYLVIE1054197434V1119F00:58:38.37
10KM LABEL REGIONAL692CHARTIERVeronique1051196613V2120F00:58:40.64
10KM LABEL REGIONAL693DE QUERCIZEHugues1561973180V1573M00:58:40.67
10KM LABEL REGIONAL694DESBONNETSJérémy2071978181V1574M00:58:40.70
10KM LABEL REGIONAL695DESBONNETSLIONEL2081971182V1575M00:58:40.77RUNNERS DE BONDUES
10KM LABEL REGIONAL696DANSETTEEdouard1431971183V1576M00:58:40.78RUNNERS DE BONDUES
10KM LABEL REGIONAL697LEBOUCHER SABREJulie1173197335V1121F00:58:43.68
10KM LABEL REGIONAL698BIZETXavier501976184V1577M00:58:43.86
10KM LABEL REGIONAL699MATHIEUPerrine1211198961SE122F00:58:44.92
10KM LABEL REGIONAL700POIXMathieu6541982240SE578M00:58:46.10
10KM LABEL REGIONAL701PÉLERINMarion123219987ES123F00:58:46.93
10KM LABEL REGIONAL702LEROYThéo366200013JU579M00:58:47.04
10KM LABEL REGIONAL703NIVESSEAnthony4411983241SE580M00:58:47.98
10KM LABEL REGIONAL704TIBERGHIENJean-Yves1991488540196790V2581M00:58:48.71US MARQUETTE
10KM LABEL REGIONAL705PIATBenoit460199827ES582M00:58:48.97
10KM LABEL REGIONAL706FIEVETLaurence1125197036V1124F00:58:49.52
10KM LABEL REGIONAL707BEAUCOURTDominique30196391V2583M00:58:49.90
10KM LABEL REGIONAL708NOLLET--RONDELEZMathys442200111CA584M00:58:54.12
10KM LABEL REGIONAL709DURAND DUFRENNEJulie1120198462SE125F00:58:54.74
10KM LABEL REGIONAL710GOURNAYCarole1136198163SE126F00:58:55.48
10KM LABEL REGIONAL711ROQUETTEADRIEN7301983242SE585M00:58:55.66
10KM LABEL REGIONAL712VERINFrançois Xavier5751969185V1586M00:58:55.93
10KM LABEL REGIONAL713LELIEVRELAURENT356196292V2587M00:58:58.84
10KM LABEL REGIONAL714FALEMPINBenoît2551987243SE588M00:59:00.60
10KM LABEL REGIONAL715DEMAILLYChristine1086197537V1127F00:59:01.62
10KM LABEL REGIONAL716DJEMILKIMICI816200112CA589M00:59:03.27
10KM LABEL REGIONAL717SALETARemi631195115V3590M00:59:06.40
10KM LABEL REGIONAL718HAEMMERLEINJEAN PIERRE706196493V2591M00:59:10.43
10KM LABEL REGIONAL719DUBORPERStephanie1321197538V1128F00:59:12.63
10KM LABEL REGIONAL720LEONARDStephanie1291198064SE129F00:59:13.65
10KM LABEL REGIONAL721DUPONTSébastien2401969186V1592M00:59:13.77
10KM LABEL REGIONAL722BRANQUARTOlivier811974187V1593M00:59:14.96
10KM LABEL REGIONAL723LAURENTSandrine1170197339V1130F00:59:16.64
10KM LABEL REGIONAL724LEJEUNESébastien3541987244SE594M00:59:17.01
10KM LABEL REGIONAL725LECLERCQLaurent3451975188V1595M00:59:17.42
10KM LABEL REGIONAL726MANESSIEZBenjamin3941981245SE596M00:59:17.67
10KM LABEL REGIONAL727ALLOUSMorgane1313199365SE131F00:59:17.83
10KM LABEL REGIONAL728DUCROCQCéline1109198366SE132F00:59:18.65
10KM LABEL REGIONAL729LAYATIFADHA1354196114V2133F00:59:18.71
10KM LABEL REGIONAL730FINIELSLucie1126199067SE134F00:59:21.35
10KM LABEL REGIONAL731BOCQUETCLAIRE20641901025197240V1135F00:59:21.83US MARQUETTE
10KM LABEL REGIONAL732BOCQUETFrédéric1571360551970189V1597M00:59:22.93VILLENEUVE D ASCQ FRETIN ATHLETISME
10KM LABEL REGIONAL733DE MUYNCKBruno154195816V3598M00:59:26.99
10KM LABEL REGIONAL734DELLOYENICOLAS719195117V3599M00:59:27.43
10KM LABEL REGIONAL735LEMAIRE-BAYARTCatherine118519493V3136F00:59:27.91
10KM LABEL REGIONAL736CAVALIEJean-charles1141981246SE600M00:59:30.68
10KM LABEL REGIONAL737DECORDEMeline1071199168SE137F00:59:31.75
10KM LABEL REGIONAL738RANCIERLaetitia1236198069SE138F00:59:32.62
10KM LABEL REGIONAL739MICHERONCapucine129408ES139F00:59:33.15
10KM LABEL REGIONAL740BRABANTMathieu781975190V1601M00:59:37.35
10KM LABEL REGIONAL741VANLERBERGHEHélène1281196941V1140F00:59:41.65GINKGO SPORT
10KM LABEL REGIONAL742LORIDANConstance20590601197198470SE141F00:59:43.01JOGGING AVENTURE RONCQUOISE
10KM LABEL REGIONAL743VARINPatrick1196194V2602M00:59:45.69
10KM LABEL REGIONAL744VENIATMarc5701990247SE603M00:59:47.23
10KM LABEL REGIONAL745ACUDADSabih21971191V1604M00:59:49.99
10KM LABEL REGIONAL746TETAERTYoann5321986248SE605M00:59:50.46
10KM LABEL REGIONAL747DUPONTBruno239196595V2606M00:59:51.17
10KM LABEL REGIONAL748NEIRINCKFREDDY439196696V2607M00:59:52.26OWENS 36
10KM LABEL REGIONAL749ELLARTMarine1122199071SE142F00:59:53.41
10KM LABEL REGIONAL750CARONMartin1001989249SE608M00:59:53.49
10KM LABEL REGIONAL751BICEPLAURENT8131979250SE609M00:59:55.35
10KM LABEL REGIONAL752DE FREITASLaurence1302197142V1143F00:59:58.95run sante
10KM LABEL REGIONAL753ARMANDMarie-Sophie1004199172SE144F00:59:59.31
10KM LABEL REGIONAL754WUIBAILLEHervé6001981251SE610M00:59:59.33
10KM LABEL REGIONAL755BOURLETSOPHIE1367196715V2145F01:00:00.07
10KM LABEL REGIONAL756ALEXANDRECorinne1003197973SE146F01:00:01.77
10KM LABEL REGIONAL757DECARNEEmilie1069197743V1147F01:00:03.07
10KM LABEL REGIONAL758SOLEILStéphanie1251198574SE148F01:00:03.88COURIR A LINSELLES
10KM LABEL REGIONAL759DESVOIESCharlotte1099199475SE149F01:00:05.56
10KM LABEL REGIONAL760COQUERELLEFrançois1281980252SE611M01:00:09.17
10KM LABEL REGIONAL761?DOSSARD#1061106109ES150F01:00:09.20
10KM LABEL REGIONAL762PALMER GLORIEUXCELINE1223197544V1151F01:00:09.25FAW
10KM LABEL REGIONAL763FAUCHEURGuillaume2571983253SE612M01:00:09.62
10KM LABEL REGIONAL764COUROUBLEFlorine1058199476SE152F01:00:10.34
10KM LABEL REGIONAL765FACONSEVERINE1351077SE153F01:00:10.67US MARQUETTE
10KM LABEL REGIONAL766SALLESNicolas5051982254SE613M01:00:11.18
10KM LABEL REGIONAL767GODARTDamien2761990255SE614M01:00:16.44
10KM LABEL REGIONAL768SANCHEZDany506195318V3615M01:00:20.94
10KM LABEL REGIONAL769RICHARDIngrid1241197645V1154F01:00:22.71
10KM LABEL REGIONAL770MIJICFabien4181972192V1616M01:00:24.48
10KM LABEL REGIONAL771HALLUINClementine114320024CA155F01:00:28.67
10KM LABEL REGIONAL772SIGNORETPHILIPPE724196097V2617M01:00:30.87
10KM LABEL REGIONAL773MERLIOTNathanaël4131983256SE618M01:00:35.05
10KM LABEL REGIONAL774DESTAILLEURPEGGY1098197346V1156F01:00:37.42
10KM LABEL REGIONAL775BISIAUXSTEPHANE491976193V1619M01:00:40.30
10KM LABEL REGIONAL776GHILACIKarim2731971194V1620M01:00:41.41
10KM LABEL REGIONAL777STIBONPhilippe7641970195V1621M01:00:45.19
10KM LABEL REGIONAL778LHOTELLERIEDAVID7431970196V1622M01:00:46.81
10KM LABEL REGIONAL779THULLIEZClara1266198878SE157F01:00:46.99
10KM LABEL REGIONAL780NUTTECatherine1219197347V1158F01:00:49.66
10KM LABEL REGIONAL781BRUFFAERTSAntoine83196398V2623M01:00:51.81
10KM LABEL REGIONAL782DELSINNEFrançois1921972197V1624M01:00:51.84
10KM LABEL REGIONAL783SUBTSXavier6751969198V1625M01:00:55.83
10KM LABEL REGIONAL784PLOUXArnaud707196599V2626M01:00:58.14
10KM LABEL REGIONAL785PINARTAUDREY1359199079SE159F01:00:59.84
10KM LABEL REGIONAL786BLANCKESéverine1024198080SE160F01:01:00.49
10KM LABEL REGIONAL787MARCYPhilippe3961961100V2627M01:01:00.52
10KM LABEL REGIONAL788BRABANTThéophile79199728ES628M01:01:02.35
10KM LABEL REGIONAL789CARDONAngelique1047196816V2161F01:01:03.81
10KM LABEL REGIONAL790BILLETSophie1023198581SE162F01:01:05.53
10KM LABEL REGIONAL791LAVIEVILLEJoel6861963101V2629M01:01:07.11
10KM LABEL REGIONAL792CATTEAUBernard108195219V3630M01:01:13.70
10KM LABEL REGIONAL793COUILLETVincent1341979257SE631M01:01:15.86
10KM LABEL REGIONAL794BUISSETCharles901992258SE632M01:01:16.06
10KM LABEL REGIONAL795BERCHEAmandine1019199282SE163F01:01:24.24
10KM LABEL REGIONAL796LIGRECIFiorenzo761199829ES633M01:01:28.12tripel run sint-jansrappel
10KM LABEL REGIONAL797VARRASSEPierre6461995259SE634M01:01:28.42tripel run sint-jansrappel
10KM LABEL REGIONAL798BARRETThibaut221969199V1635M01:01:30.43
10KM LABEL REGIONAL799GESTATAlexandre2711987260SE636M01:01:30.73
10KM LABEL REGIONAL800LANDMANNRomane116720025CA164F01:01:36.79
10KM LABEL REGIONAL801BROUSSEMarie1036198383SE165F01:01:38.67
10KM LABEL REGIONAL802SIMOENSElodie605198484SE166F01:01:39.05
10KM LABEL REGIONAL803DELAHOUSSEFrederic14670521741967102V2637M01:01:40.70US MARQUETTE
10KM LABEL REGIONAL804TEUGHELSLucie1261199185SE167F01:01:41.04
10KM LABEL REGIONAL805BERONSophie1021197748V1168F01:01:43.59
10KM LABEL REGIONAL806MEURVILLEEmmanuel6771970200V1638M01:01:50.73
10KM LABEL REGIONAL807LEQUIEVREAurelie603197849V1169F01:01:51.59
10KM LABEL REGIONAL808BRASSEURCeline1305197250V1170F01:01:52.35
10KM LABEL REGIONAL809JACQUARTCoralie1155198986SE171F01:01:53.69
10KM LABEL REGIONAL810LAURENTAdeline1169198187SE172F01:01:59.75
10KM LABEL REGIONAL811QUESNOITVeronique18729091233197351V1173F01:02:00.81JOGGING AVENTURE RONCQUOISE
10KM LABEL REGIONAL812ENSELMEAlain-Pierre6301971201V1639M01:02:01.11
10KM LABEL REGIONAL813BENDIABMorgane1017198088SE174F01:02:02.68
10KM LABEL REGIONAL814DELAHOUSSEFlorence1079197652V1175F01:02:02.84
10KM LABEL REGIONAL815MAIGNONAlice1200197989SE176F01:02:04.17
10KM LABEL REGIONAL816DESBONNETSMax2091968103V2640M01:02:07.57
10KM LABEL REGIONAL817WAELESCatherine1315196953V1177F01:02:09.19
10KM LABEL REGIONAL818BERTHOULOUXGwenael451973202V1641M01:02:15.62
10KM LABEL REGIONAL819BULTEELDominique1038196317V2178F01:02:18.45
10KM LABEL REGIONAL820LETELLIERBerengere1190197990SE179F01:02:19.24
10KM LABEL REGIONAL821DEGELCKEJULIETTE107620003JU180F01:02:19.28
10KM LABEL REGIONAL822PETITPREZArnaud4581989261SE642M01:02:19.99
10KM LABEL REGIONAL823DEFONTAINEChristian692195520V3643M01:02:28.54
10KM LABEL REGIONAL824BREMERFabienne1299197254V1181F01:02:28.69
10KM LABEL REGIONAL825GALINIEREDITH1130197055V1182F01:02:32.23
10KM LABEL REGIONAL826RAISONEmilie1234198491SE183F01:02:34.24
10KM LABEL REGIONAL827SITBONChristine1316197256V1184F01:02:34.34
10KM LABEL REGIONAL828DOUTRELONGMichael2291979262SE644M01:02:34.72
10KM LABEL REGIONAL829PULEOSalvatore4741966104V2645M01:02:35.53
10KM LABEL REGIONAL830LEMAHIEUFlorence1182197857V1185F01:02:36.71
10KM LABEL REGIONAL831DUCHENEClaire1108198192SE186F01:02:37.52
10KM LABEL REGIONAL832MIALARETFlora1213199610ES187F01:02:40.85
10KM LABEL REGIONAL833MIALARETPhilippe4141965105V2646M01:02:40.89
10KM LABEL REGIONAL834BONNETMATHILDE1028198793SE188F01:02:46.04
10KM LABEL REGIONAL835KINNENAudrey19708691163197858V1189F01:02:51.51JOGGING AVENTURE RONCQUOISE
10KM LABEL REGIONAL836HOUZETFrederic3101960106V2647M01:02:54.38
10KM LABEL REGIONAL837BEAURAINAURORE1012198094SE190F01:02:56.05
10KM LABEL REGIONAL838OLIVIERMATHILDE1365198595SE191F01:02:58.80
10KM LABEL REGIONAL839VASSEURAurelien5681984263SE648M01:03:03.09
10KM LABEL REGIONAL840DERUELLEEmilie1093198496SE192F01:03:03.34
10KM LABEL REGIONAL841DAGUENETMarion1064198897SE193F01:03:03.87
10KM LABEL REGIONAL842CHEVALIERNoémie1052199611ES194F01:03:03.88
10KM LABEL REGIONAL843MICHERONPierre-Henri6211982264SE649M01:03:06.10
10KM LABEL REGIONAL844CAMPELLOChristophe951970203V1650M01:03:13.64
10KM LABEL REGIONAL845ROYEThierry5031965107V2651M01:03:18.76
10KM LABEL REGIONAL846LEFEBVREPauline1178198298SE195F01:03:18.87
10KM LABEL REGIONAL847LIAGREAnne-Clémence1194199712ES196F01:03:20.41
10KM LABEL REGIONAL848KMITAPEGGY1358197259V1197F01:03:21.37
10KM LABEL REGIONAL849DECALONNEPIERRE ANTOINE8231995265SE652M01:03:24.64
10KM LABEL REGIONAL850LAURENCELBeatrice602196960V1198F01:03:28.41
10KM LABEL REGIONAL851MALAQUINAnne-Sophie1203198699SE199F01:03:38.32
10KM LABEL REGIONAL852FOURNIERDANIELLE1935982112919554V3200F01:03:41.44COURIR DANS LE LUMBROIS
10KM LABEL REGIONAL853ROUSSELPhilippe518192500195721V3653M01:03:42.02CS IBM Nord-Normandie
10KM LABEL REGIONAL854DECALONNELaurence1068196718V2201F01:03:43.00
10KM LABEL REGIONAL855GHEZALISTEPHANE7181965108V2654M01:03:45.43
10KM LABEL REGIONAL856BERTAUXJean luc441965109V2655M01:03:45.86
10KM LABEL REGIONAL857DE CHATEAUBOURGBERTRAND1501968110V2656M01:03:47.89
10KM LABEL REGIONAL858ORIACCarole1222197761V1202F01:03:48.60
10KM LABEL REGIONAL859SCHMITTSylvie1246197862V1203F01:03:49.75
10KM LABEL REGIONAL860BRYGO BAUDENBRIGITTE1335196619V2204F01:03:51.94
10KM LABEL REGIONAL861MIEYEVILLEBérénice12141979100SE205F01:03:53.30
10KM LABEL REGIONAL862RANDAZZOCecilia12371985101SE206F01:03:55.50
10KM LABEL REGIONAL863CAUDRONMaxime1111984266SE657M01:03:55.65
10KM LABEL REGIONAL864HOCQUETGwenaëlleT30581111521983102SE207F01:03:57.01
10KM LABEL REGIONAL865GOURVEZJEAN-JACQUES2811966111V2658M01:03:57.84
10KM LABEL REGIONAL866LECHATDiane11741987103SE208F01:03:58.03
10KM LABEL REGIONAL867GENYSophie1132197463V1209F01:03:58.13
10KM LABEL REGIONAL868TISONDominique126919565V3210F01:04:03.28
10KM LABEL REGIONAL869POURBAIXCHANTAL1229196220V2211F01:04:09.72
10KM LABEL REGIONAL870HANCQUARTFranck7591962112V2659M01:04:13.38run sante
10KM LABEL REGIONAL871MURRAYMATTHIEU7761969204V1660M01:04:13.81
10KM LABEL REGIONAL872CRETONColleen106020016CA212F01:04:14.71AC MARCQUOIS
10KM LABEL REGIONAL873VANACKERRoxane1277196821V2213F01:04:15.06
10KM LABEL REGIONAL874CORBEAUBRUNO1291965113V2661M01:04:16.97
10KM LABEL REGIONAL875KLEINPOORTCécile11641982104SE214F01:04:17.42
10KM LABEL REGIONAL876CACHERATThierryt305298931971205V1662M01:04:20.17
10KM LABEL REGIONAL877VARELAJonas5651989267SE663M01:04:20.45
10KM LABEL REGIONAL878REERINKAntoine4821976206V1664M01:04:21.04
10KM LABEL REGIONAL879HUGONCHRISTOPHE3131965114V2665M01:04:24.38
10KM LABEL REGIONAL880BRESPhilippe82195722V3666M01:04:26.44
10KM LABEL REGIONAL881COULBEAUTNICOLAS7731989268SE667M01:04:28.03
10KM LABEL REGIONAL882MOREELSVINCENT4271969207V1668M01:04:29.53
10KM LABEL REGIONAL883BONNETGeoffroy631987269SE669M01:04:30.05
10KM LABEL REGIONAL884ROMBAUTSébastien4921978208V1670M01:04:30.22
10KM LABEL REGIONAL885DESAGHEREric2061964115V2671M01:04:33.16
10KM LABEL REGIONAL886FAUQUEMBERGUEEmeline11231989105SE215F01:04:34.21
10KM LABEL REGIONAL887CAMERLYNCKRebecca10411979106SE216F01:04:37.67
10KM LABEL REGIONAL888ALLOUSKhemais6571960116V2672M01:04:41.06
10KM LABEL REGIONAL889THIELLaetitia1264197564V1217F01:04:42.91
10KM LABEL REGIONAL890DRANCOURTPascaline13920011104197365V1218F01:04:44.54JOGGING AVENTURE RONCQUOISE
10KM LABEL REGIONAL891GODDAERTMelissa190275811341986107SE219F01:04:44.84JOGGING AVENTURE RONCQUOISE
10KM LABEL REGIONAL892DIANAMalcolm2261992270SE673M01:04:48.87
10KM LABEL REGIONAL893AMPEFrancois91969209V1674M01:04:49.40
10KM LABEL REGIONAL894BAUXPhilippe281966117V2675M01:04:49.65
10KM LABEL REGIONAL895KIDEYAndre3221959118V2676M01:04:51.63
10KM LABEL REGIONAL896SPEYBROUKGAUTIER822200113CA677M01:04:55.77
10KM LABEL REGIONAL897MATHIEUVIRGINIE12121979108SE220F01:04:56.32
10KM LABEL REGIONAL898DI VITAROCCO81819474V4678M01:04:59.88
10KM LABEL REGIONAL899MAURELSwann4051985271SE679M01:05:01.53
10KM LABEL REGIONAL900CARDINAELAudrey10461980109SE221F01:05:03.36
10KM LABEL REGIONAL901DEMAISONOdile1087197666V1222F01:05:06.55
10KM LABEL REGIONAL902SUAREZSalvino5261965119V2680M01:05:10.92
10KM LABEL REGIONAL903CAUSCHETEUXPAULINE13231994110SE223F01:05:11.34
10KM LABEL REGIONAL904COISENSEBASTIEN7001976210V1681M01:05:11.63
10KM LABEL REGIONAL905DHALLUINLaurent6991972211V1682M01:05:11.96
10KM LABEL REGIONAL906QUIEVREChristophe4771970212V1683M01:05:12.05
10KM LABEL REGIONAL907VANDERMEERSHTHIERRY146760701195823V3684M01:05:12.17ATHLE HALLUIN-VAL-DE-LYS
10KM LABEL REGIONAL908GAVINVIRGINIE1131197367V1224F01:05:13.26COURIR A LINSELLES
10KM LABEL REGIONAL909DELGRANCHEDAVID1861975213V1685M01:05:14.67
10KM LABEL REGIONAL910VANPOUCKECharlotte1322197568V1225F01:05:14.79
10KM LABEL REGIONAL911LENOIRSylvette1187196222V2226F01:05:14.89RUN IN BOUSBECQUE
10KM LABEL REGIONAL912MARROTMarine12071992111SE227F01:05:16.83RUNNING NEUVILLE EN FERRAIN
10KM LABEL REGIONAL913LEMAIRELéa118320017CA228F01:05:18.09RUNNING NEUVILLE EN FERRAIN
10KM LABEL REGIONAL914LACHERIEJulien3271979272SE686M01:05:19.88
10KM LABEL REGIONAL915HUAUXSerge311195324V3687M01:05:20.59
10KM LABEL REGIONAL916BEYAERTMichel6391967120V2688M01:05:20.91run sante
10KM LABEL REGIONAL917BERNOTMarie-Pierre10201980112SE229F01:05:21.03
10KM LABEL REGIONAL918DELPLANQUEYannick1911960121V2689M01:05:22.18
10KM LABEL REGIONAL919DECALONNEFabrice1611967122V2690M01:05:24.11
10KM LABEL REGIONAL920DESPINOYAngèle109520028CA230F01:05:31.96
10KM LABEL REGIONAL921DENORMESimon2001976214V1691M01:05:43.66
10KM LABEL REGIONAL922DEPOORTERNicolas2021984273SE692M01:05:49.78
10KM LABEL REGIONAL923MBEUTCHAKévin4071986274SE693M01:05:51.29
10KM LABEL REGIONAL924JASPARTJEROME7741974215V1694M01:05:56.58
10KM LABEL REGIONAL925ROUZIERThomas5011984275SE695M01:06:00.58
10KM LABEL REGIONAL926BOLLENGIERStephane601972216V1696M01:06:19.40
10KM LABEL REGIONAL927THIEFFRYChristine1263196123V2231F01:06:19.59
10KM LABEL REGIONAL928DRIEUDIDIER230195025V3697M01:06:26.25
10KM LABEL REGIONAL929CAESANNE1039197269V1232F01:06:28.27
10KM LABEL REGIONAL930BAILLEUXBertrand151964123V2698M01:06:30.31
10KM LABEL REGIONAL931DUQUESNOYFabrice6441968124V2699M01:06:30.64
10KM LABEL REGIONAL932HERTAULTHelene13071983113SE233F01:06:34.85
10KM LABEL REGIONAL933LEJUSTEJuliette11801979114SE234F01:06:34.99
10KM LABEL REGIONAL934CLAIREEmilie10551980115SE235F01:06:36.28
10KM LABEL REGIONAL935BOGGIOClaire1026196524V2236F01:06:37.58
10KM LABEL REGIONAL936DESSEAUXINES109720004JU237F01:06:40.61
10KM LABEL REGIONAL937ZIEGLERClaire128820005JU238F01:06:40.90
10KM LABEL REGIONAL938SUAREZManuella1255197070V1239F01:06:41.01
10KM LABEL REGIONAL939VAUTHIERSTEPHANIE12821980116SE240F01:06:48.92
10KM LABEL REGIONAL940DELAMBREAnne13201981117SE241F01:06:49.62
10KM LABEL REGIONAL941MOUNEYManon12171990118SE242F01:06:50.44
10KM LABEL REGIONAL942RETIELSoraya12391991119SE243F01:06:52.74
10KM LABEL REGIONAL943CAMPAGNENathalie1042196971V1244F01:06:53.45
10KM LABEL REGIONAL944GYSELINCKClaire11421987120SE245F01:06:58.39
10KM LABEL REGIONAL945MARTINEZRobin3981993276SE700M01:07:00.28
10KM LABEL REGIONAL946CRÉPINAmélie10621993121SE246F01:07:00.41
10KM LABEL REGIONAL947BRUNEELSandrine10371989122SE247F01:07:01.26
10KM LABEL REGIONAL948DECRUYENAEREVirginie10741987123SE248F01:07:03.73
10KM LABEL REGIONAL949LELIEVREKARINE1181197372V1249F01:07:05.01
10KM LABEL REGIONAL950DUBOISPATRICIA20302721106196425V2250F01:07:16.58US VALENCIENNES ATHLETISME
10KM LABEL REGIONAL951VAN CENEBRUCKFABIENNE1328196226V2251F01:07:19.38
10KM LABEL REGIONAL952WOESTELANDTFlavie12871989124SE252F01:07:23.00
10KM LABEL REGIONAL953TIBERGHIENArnaud538195226V3701M01:07:25.47
10KM LABEL REGIONAL954MAESLucille11991993125SE253F01:07:34.69
10KM LABEL REGIONAL955BOSSVIRGINIE1339197373V1254F01:07:35.94
10KM LABEL REGIONAL956FERNANDESBELMIRS1348196327V2255F01:07:38.75
10KM LABEL REGIONAL957LEFEBVRENicolas7581966125V2702M01:07:42.40
10KM LABEL REGIONAL958CAMPIONFabien6501965126V2703M01:07:58.18
10KM LABEL REGIONAL959LEMEMBREDelphine1309196974V1256F01:08:05.46
10KM LABEL REGIONAL960SELOSSEEmmanuelle20473831248196975V1257F01:08:05.69PLANETE RUNNING AND WALKING
10KM LABEL REGIONAL961DEKEYSEREmilie10781985126SE258F01:08:06.12
10KM LABEL REGIONAL962BENOITMickeal401988277SE704M01:08:06.26
10KM LABEL REGIONAL963BASTA-GODARDKatarzyna10101980127SE259F01:08:10.62
10KM LABEL REGIONAL964CATTEAUAlexis1071978217V1705M01:08:18.71
10KM LABEL REGIONAL965LEROYSabine1188197176V1260F01:08:21.38
10KM LABEL REGIONAL966DEVROEDEAdeline11001990128SE261F01:08:32.75
10KM LABEL REGIONAL967KIDEYIngrid11621990129SE262F01:08:35.49
10KM LABEL REGIONAL968VANBAELINGHERStephane6631966127V2706M01:08:38.13
10KM LABEL REGIONAL969HAPIOTADELINE11441986130SE263F01:08:42.31
10KM LABEL REGIONAL970BECUCLEMENT321986278SE707M01:08:42.43
10KM LABEL REGIONAL971DOLIGEZSandrine1311197877V1264F01:08:44.32
10KM LABEL REGIONAL972ROSSELLEMadiha1293197078V1265F01:08:53.17
10KM LABEL REGIONAL973KUBASRomain3251980279SE708M01:08:54.30
10KM LABEL REGIONAL974LAGRAULETBENJAMIN7041973218V1709M01:09:04.97
10KM LABEL REGIONAL975LAGRAULTAURELIE1325197479V1266F01:09:05.10
10KM LABEL REGIONAL976STROUDMargaux12471995131SE267F01:09:09.58
10KM LABEL REGIONAL977SELOSSENicolas760199730ES710M01:09:09.60
10KM LABEL REGIONAL978GROSSCamille11381980132SE268F01:09:15.71
10KM LABEL REGIONAL979LANDMANNSébastien3311973219V1711M01:09:16.29
10KM LABEL REGIONAL980TIBERGHIENIngrid1268197580V1269F01:09:16.45
10KM LABEL REGIONAL981ADELINEEmilie13121987133SE270F01:09:20.21
10KM LABEL REGIONAL982RODRIGUESMichel490195527V3712M01:09:22.53COURIR ENSEMBLE SNCF
10KM LABEL REGIONAL983STUCKICeline1254197381V1271F01:09:24.87
10KM LABEL REGIONAL984DECORDELaurent1641971220V1713M01:09:26.10
10KM LABEL REGIONAL985MANTELNadege1205197482V1272F01:09:29.74
10KM LABEL REGIONAL986HAULMÉReynald2951981280SE714M01:09:34.53
10KM LABEL REGIONAL987BURIEEmmanuel6691970221V1715M01:09:36.37
10KM LABEL REGIONAL988DEPRAETEREJean Yves204195728V3716M01:09:39.93
10KM LABEL REGIONAL989CUCINOTTADominique1391964128V2717M01:09:45.44
10KM LABEL REGIONAL990VITRYISABELLE1345197283V1273F01:09:45.47
10KM LABEL REGIONAL991TORTELLIERRICHARD7721967129V2718M01:09:46.06
10KM LABEL REGIONAL992BELLETANA1016196428V2274F01:09:47.84COTE D'OPALE TRIATHLON
10KM LABEL REGIONAL993HENICHARTAnne19089891145197084V1275F01:09:50.20HEM ATHLETIC CLUB
10KM LABEL REGIONAL994HELBECQUEIsabelle1303196629V2276F01:09:55.98run sante
10KM LABEL REGIONAL995DELBOURMartine1081195930V2277F01:09:57.96
10KM LABEL REGIONAL996DELBOURDominique180195829V3719M01:09:58.18
10KM LABEL REGIONAL997SOGORJulien5231987281SE720M01:09:59.64
10KM LABEL REGIONAL998SOGORClement5221994282SE721M01:09:59.86
10KM LABEL REGIONAL999BRABANTAngélique1033196531V2278F01:09:59.91
10KM LABEL REGIONAL1000DAVIDChantal1066197685V1279F01:10:00.27
10KM LABEL REGIONAL1001BRABANTEmeric771963130V2722M01:10:00.28
10KM LABEL REGIONAL1002DARGENTAnne-Sophie10651990134SE280F01:10:01.69
10KM LABEL REGIONAL1003CARONVeronique1301196732V2281F01:10:04.11run sante
10KM LABEL REGIONAL1004DEPREYMichel205195530V3723M01:10:08.32
10KM LABEL REGIONAL1005GOMMEAUXAntoine6421959131V2724M01:10:15.22
10KM LABEL REGIONAL1006BROSSELNathalie10351992135SE282F01:10:20.12
10KM LABEL REGIONAL1007NAYEMichel976444437195731V3725M01:10:21.50PLANETE RUNNING AND WALKING
10KM LABEL REGIONAL1008LEMANCHRYSTÈLE19877481186197086V1283F01:10:22.30US MARQUETTE
10KM LABEL REGIONAL1009DESTAILLEURFREDERIC2161965132V2726M01:10:25.55
10KM LABEL REGIONAL1010VERZELENBaptiste5791988283SE727M01:10:27.46
10KM LABEL REGIONAL1011PINIERCAROLE1353197287V1284F01:10:28.49
10KM LABEL REGIONAL1012GRASSARTTRISTAN7151992284SE728M01:10:29.71
10KM LABEL REGIONAL1013LEFEVREAmelie1310197588V1285F01:10:44.39
10KM LABEL REGIONAL1014COLASFloriane10561988136SE286F01:10:54.41
10KM LABEL REGIONAL1015COLASPascal2626546871962133V2729M01:10:58.15US MARQUETTE
10KM LABEL REGIONAL1016RAVINEmilie12381979137SE287F01:11:02.91
10KM LABEL REGIONAL1017HERLINMarie-Laure1147196233V2288F01:11:07.67
10KM LABEL REGIONAL1018MOUCZKAAUDREY13471980138SE289F01:11:08.87
10KM LABEL REGIONAL1019SZYMONIAKCatherine1206445125919586V3290F01:11:09.49CS IBM Nord-Normandie
10KM LABEL REGIONAL1020BERTHELOOTGenevieve723858102219527V3291F01:11:10.28CS IBM Nord-Normandie
10KM LABEL REGIONAL1021HERTAULTAnne Charlotte11491991139SE292F01:11:16.56
10KM LABEL REGIONAL1022LEVEQUEAUDREY11911980140SE293F01:11:17.17
10KM LABEL REGIONAL1023DUQUENNEGrégory2411978222V1730M01:11:17.39HUMANIS
10KM LABEL REGIONAL1024DURIEUNicolas2471972223V1731M01:11:25.13
10KM LABEL REGIONAL1025TRAISNELJEREMIE7801986285SE732M01:11:28.88
10KM LABEL REGIONAL1026ROELANDSSophieA08850C1319196434V2294F01:11:47.98HALLUIN TRIATHLON
10KM LABEL REGIONAL1027SILVAHélène12501979141SE295F01:11:53.06
10KM LABEL REGIONAL1028MACEANABELLE1340197789V1296F01:11:58.00
10KM LABEL REGIONAL1029RAMBURVirginie205354512351989142SE297F01:12:00.47PLANETE RUNNING AND WALKING
10KM LABEL REGIONAL1030MORIVALElodie12951982143SE298F01:12:10.78
10KM LABEL REGIONAL1031LEFEBVREAnne12971985144SE299F01:12:10.92
10KM LABEL REGIONAL1032DESWERTVAEGERFlorent6521990286SE733M01:12:14.13
10KM LABEL REGIONAL1033DEHEMALAIN7211966134V2734M01:12:14.36
10KM LABEL REGIONAL1034DEHEMCHRISTINE1330197090V1300F01:12:14.43
10KM LABEL REGIONAL1035DEPUYDTLudivine10891983145SE301F01:12:20.42
10KM LABEL REGIONAL1036ABISHelene10011984146SE302F01:12:22.24
10KM LABEL REGIONAL1037CRETONLaetitia13261980147SE303F01:12:25.88
10KM LABEL REGIONAL1038LEFEBVREIrenee-pierre347194932V3735M01:12:29.07
10KM LABEL REGIONAL1039GROOTAndy2841966135V2736M01:12:37.97
10KM LABEL REGIONAL1040VILLIERFRANCOIS5831965136V2737M01:12:43.50
10KM LABEL REGIONAL1041LICCIARDOSarah1195199613ES304F01:12:54.39
10KM LABEL REGIONAL1042INCONNUINCONNU3421978224V1738M01:12:56.72
10KM LABEL REGIONAL1043LOTINBruno383195833V3739M01:12:56.92
10KM LABEL REGIONAL1044DUBOISCamille11051985148SE305F01:12:58.30
10KM LABEL REGIONAL1045BELLETRoland3519465V4740M01:12:58.31
10KM LABEL REGIONAL1046DEFOSSEMarie aude10751991149SE306F01:13:01.02
10KM LABEL REGIONAL1047MORETVirginie1216197891V1307F01:13:09.00
10KM LABEL REGIONAL1048TASSARTEmmanuelle12601990150SE308F01:13:09.18
10KM LABEL REGIONAL1049WILLEFERTJean-Marc595195434V3741M01:13:28.14
10KM LABEL REGIONAL1050BECOURTVERONIQUE1014196635V2309F01:13:30.74
10KM LABEL REGIONAL1051FLEURISSONSANDRINE13431982151SE310F01:13:33.53
10KM LABEL REGIONAL1052VANCAEYZEELEJuliette12791981152SE311F01:14:00.17
10KM LABEL REGIONAL1053SONNEVILLEMargot12531995153SE312F01:14:02.54
10KM LABEL REGIONAL1054BEWNANIKARIMA1333196436V2313F01:14:35.52
10KM LABEL REGIONAL1055DECOUDUNAmanda1072196437V2314F01:14:43.42
10KM LABEL REGIONAL1056SUCHECKIXavier5271975225V1742M01:14:45.21RUNNING NEUVILLE EN FERRAIN
10KM LABEL REGIONAL1057MILOTCLOEE13381982154SE315F01:14:46.75
10KM LABEL REGIONAL1058DERNONCOURTLaure isabelle10921990155SE316F01:14:46.81
10KM LABEL REGIONAL1059POLLETCASSANDRE13641988156SE317F01:14:46.91
10KM LABEL REGIONAL1060DELEU-ROLLETAnne-Cécile10831982157SE318F01:14:48.75
10KM LABEL REGIONAL1061GAMOTFANNY1342197592V1319F01:15:12.48
10KM LABEL REGIONAL1062BEAUVAISDelphine1013197893V1320F01:15:17.53
10KM LABEL REGIONAL1063GANCELMarc2671974226V1743M01:15:18.11
10KM LABEL REGIONAL1064GUINEMERThérèse1140196138V2321F01:15:18.29
10KM LABEL REGIONAL1065MOCZYNSKIGrégory4191978227V1744M01:15:32.02
10KM LABEL REGIONAL1066D HONDTAdeline10631993158SE322F01:15:32.61
10KM LABEL REGIONAL1067RYSSENEMELINE13411989159SE323F01:15:41.99
10KM LABEL REGIONAL1068DUFLOTGwendoline11101993160SE324F01:15:47.75
10KM LABEL REGIONAL1069POUZADOUXRichard4691974228V1745M01:16:06.86
10KM LABEL REGIONAL1070ELKHATTABIChristine1121196839V2325F01:16:13.23
10KM LABEL REGIONAL1071CABYMARGAUX13271991161SE326F01:16:18.83
10KM LABEL REGIONAL1072TURANClaire1272197494V1327F01:16:27.44
10KM LABEL REGIONAL1073ROFFIAENFrancois4911971229V1746M01:16:47.97
10KM LABEL REGIONAL1074TJONCKELAETITIA203205012701987162SE328F01:17:07.97US MARQUETTE
10KM LABEL REGIONAL1075HERRERO CALVAMarta1148196840V2329F01:17:10.00JOGGING AVENTURE RONCQUOISE
10KM LABEL REGIONAL1076MARTINEZKathy1209196441V2330F01:17:33.89RUNNERS EN NORD
10KM LABEL REGIONAL1077ABRAMOLetiziaT30464010021981163SE331F01:17:47.90
10KM LABEL REGIONAL1078DUQUESNOYMARIE11191979164SE332F01:17:59.45
10KM LABEL REGIONAL1079HILLEWAEREJean Pierre306195435V3747M01:18:13.52
10KM LABEL REGIONAL1080GRYSONLaurence1139196342V2333F01:18:13.55
10KM LABEL REGIONAL1081DESCHAMPGUILLAUME7121988287SE748M01:18:58.52
10KM LABEL REGIONAL1082SADFIIbtihel12901989288SE749M01:19:06.47
10KM LABEL REGIONAL1083SANFILIPPOFabienne1244196743V2334F01:19:17.26
10KM LABEL REGIONAL1084ALLEXANDREFREDERIC7471980289SE750M01:19:59.66
10KM LABEL REGIONAL1085MASQUELIERGeneviève1210197295V1335F01:22:08.32
10KM LABEL REGIONAL1086KINETJean Marie3231965137V2751M01:22:12.34
10KM LABEL REGIONAL1087COUTELIERBruno6321963138V2752M01:22:12.45
10KM LABEL REGIONAL1088COUTELIERMaxence6331991290SE753M01:22:12.49
10KM LABEL REGIONAL0ANANIEVincent1019680V20M00:00:00.00
10KM LABEL REGIONAL0BAROUXNICOLAS2119780V10M00:00:00.00
10KM LABEL REGIONAL0BENADDIStéphane3619720V10M00:00:00.00
10KM LABEL REGIONAL0BENCHOUBANEAmar3719770V10M00:00:00.00
10KM LABEL REGIONAL0BENNANIFahd3919830SE0M00:00:00.00
10KM LABEL REGIONAL0BEZOTTEChristophe4619740V10M00:00:00.00
10KM LABEL REGIONAL0BIGONicolas4819800SE0M00:00:00.00
10KM LABEL REGIONAL0BOUCHEJACKIE10869756719460V40M00:00:00.00JOGGING AVENTURE RONCQUOISE
10KM LABEL REGIONAL0BRABANTCorentin7619810SE0M00:00:00.00
10KM LABEL REGIONAL0BRUNAUXPhilippe8419620V20M00:00:00.00
10KM LABEL REGIONAL0CASTEELEJoos10619590V20M00:00:00.00
10KM LABEL REGIONAL0CATTEAUNicolas11019760V10M00:00:00.00
10KM LABEL REGIONAL0CHARDONLAURENT67246511819650V20M00:00:00.00US VALENCIENNES ATHLETISME
10KM LABEL REGIONAL0CHARTIERLudovic12019660V20M00:00:00.00
10KM LABEL REGIONAL0CORNILLONGhislain13019720V10M00:00:00.00
10KM LABEL REGIONAL0DALLEValentin14219940SE0M00:00:00.00
10KM LABEL REGIONAL0DEGRÈSYoann16919910SE0M00:00:00.00WASQUEHAL TRIATHLON
10KM LABEL REGIONAL0DELACHERSEBASTIEN17319850SE0M00:00:00.00
10KM LABEL REGIONAL0DENIZARTFrancois19819770V10M00:00:00.00
10KM LABEL REGIONAL0DICQUEAdrien22719980ES0M00:00:00.00
10KM LABEL REGIONAL0DUQUESNOY - ANNULEFabrice24219680V20M00:00:00.00
10KM LABEL REGIONAL0HADDOUCEDRIC29119770V10M00:00:00.00
10KM LABEL REGIONAL0HALLIÉFlorian29219880SE0M00:00:00.00
10KM LABEL REGIONAL0HALLUINRomuald29319790SE0M00:00:00.00AS SIN LE NOBLE
10KM LABEL REGIONAL0HENINOlivier29819740V10M00:00:00.00
10KM LABEL REGIONAL0HENNEBIQUEQuentin19784129919890SE0M00:00:00.00AC WAMBRECHIES
10KM LABEL REGIONAL0LANGRENETMARC33419770V10M00:00:00.00
10KM LABEL REGIONAL0LAUZANNELouis33919910SE0M00:00:00.00
10KM LABEL REGIONAL0LE BLANNicolas34019800SE0M00:00:00.00
10KM LABEL REGIONAL0LEGRANDJonathan35119850SE0M00:00:00.00
10KM LABEL REGIONAL0LEROUGEThibault36519850SE0M00:00:00.00
10KM LABEL REGIONAL0LESAGEEtienne36919780V10M00:00:00.00
10KM LABEL REGIONAL0LEVESQUEMatthias37419960ES0M00:00:00.00
10KM LABEL REGIONAL0LEVISSEQuentin37519940SE0M00:00:00.00
10KM LABEL REGIONAL0LIEDTSAdrien37919880SE0M00:00:00.00
10KM LABEL REGIONAL0LOTINAlexis38219830SE0M00:00:00.00
10KM LABEL REGIONAL0MAESEELESebastien38719700V10M00:00:00.00
10KM LABEL REGIONAL0NEEJean Marie43819700V10M00:00:00.00
10KM LABEL REGIONAL0NIEDZWIECKICedric44019780V10M00:00:00.00
10KM LABEL REGIONAL0PLANÇONPaul46519970ES0M00:00:00.00FC BONDUES
10KM LABEL REGIONAL0RAIMANNEMelvynT30559947919960ES0M00:00:00.00PASS'RUNNING
10KM LABEL REGIONAL0REMYFrançois48319810SE0M00:00:00.00
10KM LABEL REGIONAL0RICHARDStéphane111612648519630V20M00:00:00.00RONCHIN ATHLETIC CLUB
10KM LABEL REGIONAL0RIUSPascal48819520V30M00:00:00.00
10KM LABEL REGIONAL0ROQUEHervé49519700V10M00:00:00.00
10KM LABEL REGIONAL0ROUSSEAUXValentin49719930SE0M00:00:00.00
10KM LABEL REGIONAL0SOUGNIEZJean-Baptiste52419750V10M00:00:00.00
10KM LABEL REGIONAL0TOUSSAINTRenaud??????54519710V10M00:00:00.00PLANETE RUNNING AND WALKING
10KM LABEL REGIONAL0VJEREMY54720000JU0M00:00:00.00US TOURCOING
10KM LABEL REGIONAL0VANHAECKEOLIVIER56019730V10M00:00:00.00
10KM LABEL REGIONAL0VILLENEUVEPierre58119670V20M00:00:00.00
10KM LABEL REGIONAL0VILLERSSebastien58219800SE0M00:00:00.00
10KM LABEL REGIONAL0VINCENTNicolas58419870SE0M00:00:00.00
10KM LABEL REGIONAL0VIÉFoucauld58819930SE0M00:00:00.00
10KM LABEL REGIONAL0WACOGNEGauthier58919910SE0M00:00:00.00
10KM LABEL REGIONAL0LEFEBVREStephane61719770V10M00:00:00.00
10KM LABEL REGIONAL0PLESSISAntonin62819800SE0M00:00:00.00
10KM LABEL REGIONAL0LEULMIKamel195085364919870SE0M00:00:00.00ATHLE HALLUIN-VAL-DE-LYS
10KM LABEL REGIONAL0LETOURNEUXJerome65319690V10M00:00:00.00
10KM LABEL REGIONAL0BERTONMATHIEU75019790SE0M00:00:00.00
10KM LABEL REGIONAL0JASPARTMATTHIEU77519750V10M00:00:00.00
10KM LABEL REGIONAL0BOUCHERSAMUEL80787880219770V10M00:00:00.00ARTOIS ATHLETISME
10KM LABEL REGIONAL0FLITZERIC81719680V20M00:00:00.00
10KM LABEL REGIONAL0TREBACZRAPHAEL97919880SE0M00:00:00.00
10KM LABEL REGIONAL0AUBRYAurélie100619880SE0F00:00:00.00
10KM LABEL REGIONAL0BELFANAudrey101519930SE0F00:00:00.00
10KM LABEL REGIONAL0CARDONSuzanne104819870SE0F00:00:00.00CHTI TRIATHLON
10KM LABEL REGIONAL0DEJONGHEMarina107720020CA0F00:00:00.00
10KM LABEL REGIONAL0DELARUEVALERIE108019740V10F00:00:00.00
10KM LABEL REGIONAL0DELLA NAVEFabienne108419770V10F00:00:00.00
10KM LABEL REGIONAL0DEWEPPEStéphanie110119750V10F00:00:00.00
10KM LABEL REGIONAL0DUMORTIERElisabeth111519840SE0F00:00:00.00COURIR A LINSELLES
10KM LABEL REGIONAL0DUPIREEMILIE111619820SE0F00:00:00.00
10KM LABEL REGIONAL0DUQUESNOYAmélie111819750V10F00:00:00.00
10KM LABEL REGIONAL0FLAHAUTANNE SOPHIE307759112719840SE0F00:00:00.00US VALENCIENNES ATHLETISME
10KM LABEL REGIONAL0FONTAINEEmmanuelle112819720V10F00:00:00.00
10KM LABEL REGIONAL0JAMINIONLouise115719960ES0F00:00:00.00
10KM LABEL REGIONAL0JANOWSKIJustine115819900SE0F00:00:00.00LILLE TRIATHLON
10KM LABEL REGIONAL0JAWORSKASophie115919940SE0F00:00:00.00
10KM LABEL REGIONAL0JUSTEPauline116119830SE0F00:00:00.00
10KM LABEL REGIONAL0LE MOALADELINE1217088117219790SE0F00:00:00.00US MARQUETTE
10KM LABEL REGIONAL0LEMAIRE VRIELYNCKSandrine118419770V10F00:00:00.00RUNNING NEUVILLE EN FERRAIN
10KM LABEL REGIONAL0MACKEAurore119819880SE0F00:00:00.00
10KM LABEL REGIONAL0NEESandrine121819740V10F00:00:00.00
10KM LABEL REGIONAL0POUZADOUXAnne-Laure123019760V10F00:00:00.00
10KM LABEL REGIONAL0SETIEYNadra1165935124919780V10F00:00:00.00US MARQUETTE
10KM LABEL REGIONAL0THIBAULTANGELIQUE126219710V10F00:00:00.00
10KM LABEL REGIONAL0VALLAEYSFRANCOISE127619760V10F00:00:00.00RUNNERS EN NORD
10KM LABEL REGIONAL0VEMEERSCHCaroline128319860SE0F00:00:00.00
10KM LABEL REGIONAL0VERHULSTMathilde128419900SE0F00:00:00.00
10KM LABEL REGIONAL0VERNELucie128519880SE0F00:00:00.00
10KM LABEL REGIONAL0DESMEDTVic130600ES0F00:00:00.00
10KM LABEL REGIONAL0LORSINBlandine131819690V10F00:00:00.00
10KM LABEL REGIONAL0JASPARTJANE134619750V10F00:00:00.00
10KM LABEL REGIONAL0BOGAERTFRANKA136319690V10F00:00:00.00
10KM LABEL REGIONAL0CHRISSRegis167619660V20M00:00:00.00
CourseClassementNomPrénomLicenceNuméroNaissanceClassement par Cat.Abbrev. CatégorieClassement par SexeSexeTempsClub 
5KM1BLANCBoris150720011CA1M00:17:36.50VILLENEUVE D'ASCQ TRIATHLON
5KM2TAGHLIMohamed492636166419721V12M00:17:39.55LILLE METROPOLE ATHLETISME
5KM3BERTHESébastien1857435150619931SE3M00:17:55.99SAINT VENANT ATHLETISME
5KM4TAVARES MONTEIROLUCIO168219772V14M00:18:06.23
5KM5LAZOUMATHIEU170919792SE5M00:18:07.47
5KM6NEGREPierrick1763235160120012CA6M00:18:38.62US MARQUETTE
5KM7HENNIONAlexandre156719953SE7M00:19:08.63Athlétisme Sciences Po
5KM8WILLEMHenri1960584164319924SE8M00:19:09.93VILLENEUVE D ASCQ FRETIN ATHLETISME
5KM9BOCQUETMatthieu1684823150920041MI9M00:19:58.50LILLE METROPOLE ATHLETISME
5KM10DRALINasser1184098154719601V210M00:20:11.51LILLE METROPOLE ATHLETISME
5KM11MASQUELIERBERANGERE169019781V11F00:20:22.16
5KM12BREMERColin165320013CA11M00:20:54.29
5KM13QUIEVREThomas1828596161720032MI12M00:21:02.19RC ARRAS
5KM14HAUSSAIRELisa1894171156419821SE2F00:21:07.41VILLENEUVE D ASCQ FRETIN ATHLETISME
5KM15THOREZBruno164819672V213M00:21:12.85AJC FRELINGHIEN
5KM16MELLOUKTouhamy158919895SE14M00:21:35.55
5KM17TITECATElodie420102162919892SE3F00:21:37.98US MARQUETTE
5KM18TITECATTHIERRY168519663V215M00:21:40.97
5KM19CHANDELIERJules1517192151920043MI16M00:21:41.72US MARQUETTE
5KM20SEEGMULLERAntoine164720001JU17M00:22:06.03AJC FRELINGHIEN
5KM21VANHAECKECIAN163420044MI18M00:22:22.03
5KM22TROTINJEAN170419634V219M00:22:23.01
5KM23BOUTRYValentin166119992JU20M00:22:30.18
5KM24LAJARTREGustave157420045MI21M00:22:46.09WASQUEHAL TRIATHLON
5KM25LAJARTREEmmanuel157319723V122M00:22:46.22
5KM26MOREZARTHUR1388145159520036MI23M00:22:56.68LILLE METROPOLE ATHLETISME
5KM27BREMERYanis165220047MI24M00:22:57.68
5KM28NOLLETMaelle160620031MI4F00:23:07.20
5KM29CHANDELIEREmmanuela92286c151819724V125M00:23:09.21HALLUIN TRIATHLON
5KM30SADSAOUD DUQUESNEMehdi162219826SE26M00:23:33.67
5KM31COURBOTGabin167020024CA27M00:23:44.04
5KM32NAMLouis160019981ES28M00:23:57.28
5KM33MOUQUETLaurence1736656159919651V25F00:23:57.33CLLL Armentieres
5KM34HILGERCecile156919893SE6F00:24:04.84
5KM35CATOIREFABRICE168119605V229M00:24:26.10AJC FRELINGHIEN
5KM36THESSIEUArlo162820048MI30M00:24:27.04JOGGING AVENTURE RONCQUOISE
5KM37HELLEMANSMaxence156520039MI31M00:24:28.98
5KM38FLIPPOVICTOR1553200410MI32M00:24:38.60
5KM39DELARUEMARTIN1534200411MI33M00:24:47.77
5KM40MAREKBaptiste158719947SE34M00:24:59.94
5KM41DECARPENTRIEMARINE170519904SE7F00:25:07.21
5KM42DUCAJUGrégory154919798SE35M00:25:23.26
5KM43BAILLYVanessa150419865SE8F00:25:37.90
5KM44DELEBOEElodie170219926SE9F00:25:45.03
5KM45DELPLANQUEChloé2019501153919907SE10F00:25:46.55PLANETE RUNNING AND WALKING
5KM46ECHEVINNicolas155019785V136M00:25:51.38
5KM47HAGNERELLECHRISTOPHE170019686V237M00:25:52.62
5KM48GUILBERTERIC156119809SE38M00:26:02.18
5KM49WEISSALEXANDRE164119993JU39M00:26:11.52
5KM50SAMAILLEGregoire1623199310SE40M00:26:26.00
5KM51ASTORSabine150319772V111F00:26:34.37
5KM52CALLLAERT-ARMALSTEENDorthee1412701167219713V112F00:26:41.93US MARQUETTE
5KM53GENTINACamille1651200412MI41M00:26:53.23
5KM54MAC GREGORCHANTAL168019571V313F00:26:59.55US MARQUETTE
5KM55WEISSMAXIME164220025CA42M00:27:00.74
5KM56TITECATNATHALIE168419694V114F00:27:01.32
5KM57DEBOSQUEConstance153120042MI15F00:27:18.58
5KM58CHARTIERAlexis1520200413MI43M00:27:20.70
5KM59BRABANTDelphine165801ES16F00:27:34.20
5KM60BRABANTClementine165620043MI17F00:27:34.37AC WAMBRECHIES
5KM61PAUCCharline160920011CA18F00:27:35.74
5KM62LELONGEugenie166819918SE19F00:27:42.52
5KM63LEFEBVREAlan1577198511SE44M00:27:49.64
5KM64DEBONETCOLIN1693200314MI45M00:27:56.80
5KM65BOUETMonika151219849SE20F00:28:09.02
5KM66BOUTOILLEOlivier1657198212SE46M00:28:09.07
5KM67LELONGDidier166719551V347M00:28:15.18
5KM68CHEVALIERLucas17774471522200415MI48M00:28:37.54LILLE METROPOLE ATHLETISME
5KM69CORTHALSSébastien152619766V149M00:28:38.01
5KM70CHEVALIERDominique152119687V250M00:28:38.06
5KM71DELATTRECora1535198010SE21F00:28:39.52
5KM72GALLANDAnthony1557198013SE51M00:28:40.40
5KM73DUFOREAUTHOMAS1703198014SE52M00:28:43.18
5KM74BOCQUETLéa2000076150820022CA22F00:29:03.76LILLE METROPOLE ATHLETISME
5KM75MONTAIGNELUDIVINE1707198311SE23F00:29:15.89
5KM76HENNACHEMORGANE169702ES24F00:29:28.68
5KM77DE SAINT MAURPAULINE167820023CA25F00:29:36.97
5KM78DAIRINJuliana1529198112SE26F00:29:39.69
5KM79DEPIENNEOlivier154319638V253M00:29:48.43
5KM80DELAIREAnais1533199513SE27F00:30:17.18
5KM81?Dossard#1675167502ES54M00:30:23.21
5KM82RIMEElise1619198714SE28F00:30:27.10
5KM83LAMBERTAmandine1677198915SE29F00:30:34.77
5KM84DHALLUINFrancois1674197915SE55M00:30:35.84
5KM85NIEUWLANDTLaure1603199116SE30F00:30:38.75
5KM86LOPACINSKIMANON1698199417SE31F00:30:43.85
5KM87MORAISSophie159319765V132F00:30:44.15
5KM88SYNAKOWSKI RIMECamille1626199118SE33F00:30:46.39
5KM89BEERNAERTDidier165019619V256M00:30:56.83
5KM90BOIDINCatherine151019632V234F00:31:00.97
5KM91MONNIERRonald159219747V157M00:31:18.32
5KM92RANGAMAFrederique161819746V135F00:31:18.50
5KM93RODDIERNATACHA1683198316SE58M00:31:21.19
5KM94MULLETSANDRA168919777V136F00:31:22.11
5KM95BRUNEELGuillaume8519748V159M00:31:23.14FAW
5KM96GOBERTAnthony1560198517SE60M00:31:27.85
5KM97CARLIERLeo1646200316MI61M00:31:28.20AJC FRELINGHIEN
5KM98DELEDICQDAVID153619709V162M00:31:28.21
5KM99DELAWEEmmanuel1665196810V263M00:31:41.48
5KM100KAMALDiana157119973ES37F00:31:56.24
5KM101VANESTEMARJORIE1712198119SE38F00:32:01.74
5KM102BOITTEAdrien1645199518SE64M00:32:09.09
5KM103LEGENTMATHIEU1692196511V265M00:32:11.37
5KM104BEERNAERTJustin1649198919SE66M00:32:23.96
5KM105MAILLARDJoseph166220026CA67M00:32:24.36
5KM106BREUVARTClara1513198420SE39F00:32:27.33
5KM107WALLETKarine165519708V140F00:32:33.13run sante
5KM108?Dossard#1671167103ES68M00:32:33.32
5KM109SERGENTCLAUDE169419451V469M00:32:33.46
5KM110VERFAILLEVanessa163519749V141F00:32:34.38RUNNING NEUVILLE EN FERRAIN
5KM111HERAMELIE1568198121SE42F00:32:34.51RUNNING NEUVILLE EN FERRAIN
5KM112COUSINBeatrice152819582V343F00:32:35.28
5KM113MOREAUSANDRINE1594197810V144F00:32:42.29
5KM114VIERLINGClara163820024CA45F00:32:42.41
5KM115NIEDZWIECKICedric1602197810V170M00:32:42.87
5KM116GALLIOTClémence155820025CA46F00:32:45.90
5KM117DELPLUQUEZoé154019984ES47F00:32:59.97
5KM118LIEVINLucas158119974ES71M00:32:59.97
5KM119PECHONLaurent1611196812V272M00:33:00.52
5KM120DELVALJOSEPHINE169119975ES48F00:33:02.20
5KM121DE SAINT MAURANNE1679197311V149F00:33:11.16
5KM122CAPELLEMarion164406ES50F00:33:11.52
5KM123NIKOLAITCHOUKNatalia1604197312V151F00:33:12.89
5KM124DRUOTFlorent1548197511V173M00:33:13.79
5KM125MESSUWEAudrey1663197813V152F00:33:14.48
5KM126VAN GOETHENValerie1654196914V153F00:33:17.30run sante
5KM127COSTEFannie1527198622SE54F00:33:22.25
5KM128LESIEURFlorence1580198623SE55F00:33:22.43
5KM129PLUQUETJérôme1615197412V174M00:33:22.62
5KM130VIRGONELeonardo1639197413V175M00:33:41.21
5KM131DANTOINGPerrine1530197815V156F00:33:41.52
5KM132HAGNERELLEINES169920001JU57F00:33:47.78
5KM133LECLERCQMarie-Luce166019613V258F00:33:55.66
5KM134DEROISevere1659197214V176M00:33:55.79
5KM135MC DONALDCarmel1588199124SE59F00:34:03.60
5KM136FIEVETVALERIE155119684V260F00:34:03.66
5KM137DESTAILLEURDany1545197516V161F00:34:14.01
5KM138PARÉIsabelle1607197717V162F00:34:14.21
5KM139WARCHOLVincent1666196213V277M00:34:20.53
5KM140DARRYMANON171120034MI63F00:34:22.25
5KM141MOUQUETBenoit1597196414V278M00:34:37.00
5KM142PAUCChanel160820045MI64F00:34:37.57
5KM143LIMCyrielle1582198425SE65F00:34:38.42
5KM144MEUNIERChristelle1591198626SE66F00:34:51.24
5KM145CARCELLELakshmî1516198927SE67F00:34:51.30
5KM146TRENTESEAUXMARC1688196515V279M00:34:51.40
5KM147HACHECéline1562198328SE68F00:35:10.85
5KM148MOUQUETBlanche1598199529SE69F00:35:12.16
5KM149GLAINSimon1559197615V180M00:35:13.70
5KM150LUDOVICLaurent1585197616V181M00:35:35.30
5KM151HENIN DEMONTCarine1566197518V170F00:35:36.95
5KM152ALLARDElodie1501198230SE71F00:35:43.89
5KM153LAMBINSébastien1575197517V182M00:35:54.69
5KM154VANDOOLAEGHENATACHA1686197319V172F00:36:37.72
5KM155MAESEELESylvie1669197320V173F00:36:42.34
5KM156POTTIERPerrine1616199031SE74F00:36:47.89
5KM157SANFILIPPOJustine1624199332SE75F00:36:47.99
5KM158SERGENTCAROLINE1696197221V176F00:36:49.47
5KM159FREYCHATCamille1555199233SE77F00:36:56.41
5KM160PECHONCamille161019985ES83M00:37:06.48
5KM161FOURMAUSylvie1554198834SE78F00:37:07.68
5KM162MERESSELaëtitia1590198035SE79F00:37:18.41
5KM163COLDEFYIsabel1525197822V180F00:37:19.21
5KM164GALERNEMarlyne1556197423V181F00:37:25.23COURIR A LINSELLES
5KM165SOLEILVirginie1625198236SE82F00:37:25.62COURIR A LINSELLES
5KM166KONCACAMILLE1687198337SE83F00:37:26.62
5KM167HUYGEVirginie1570197824V184F00:37:34.39
5KM168PETITMaud18569481613197938SE85F00:37:38.96PLANETE RUNNING AND WALKING
5KM169LOTTIAUXAlice1584198639SE86F00:37:39.09PLANETE RUNNING AND WALKING
5KM170VERSAILLEAnaïs1637198740SE87F00:37:39.97
5KM171LIBEERPERRINE1701198341SE88F00:37:51.11
5KM172ROBERTKrystell1620198142SE89F00:37:51.33
5KM173DETOURNEJustine1673199343SE90F00:37:54.34
5KM174THEREZSabrina1627198244SE91F00:38:04.82
5KM175DECLERCKLAURENCE1710197625V192F00:38:58.71
5KM176ROMBAUTJohanne1621197945SE93F00:39:40.10
5KM177?Dossard#1708170806ES84M00:39:40.48
5KM178DHEDINNathalie1546196926V194F00:39:43.61
5KM179LABLANCHECatherine1572197727V195F00:40:07.15
5KM180LAMBIN DERVAUXLucie1576198046SE96F00:40:18.86
5KM181LOMBARTAudrey1583198747SE97F00:40:22.66
5KM182DESCHAMPSFREDERIC1544197018V185M00:40:26.96
5KM183WAQUIERGaetan1640198820SE86M00:40:40.90BOURBOURG SC BASKET CLUB
5KM184FLIPPOCharlotte1552197728V198F00:42:44.29
5KM185DECORDEDominique1532197129V199F00:42:56.34
5KM186BEACQMarie Christine1505198448SE100F00:43:11.88
5KM187DEMARETMathilde1542198349SE101F00:43:12.16
5KM188ARMEDEAnnie1005198450SE102F00:47:36.62
5KM0AMYOTRoxane150219910SE0F00:00:00.00
5KM0BONIFACEIgor151120030MI0M00:00:00.00
5KM0BUGNYCeline151519900SE0F00:00:00.00
5KM0CHOQUETANN-SOPHY152319770V10F00:00:00.00
5KM0CLOEZElodie152419810SE0F00:00:00.00
5KM0DELEPINEISABELLE779528153819720V10F00:00:00.00LILLE METROPOLE ATHLETISME
5KM0DELVALCharles154119960ES0M00:00:00.00
5KM0HANNACaroline156319930SE0F00:00:00.00
5KM0LESCOUTRESeverine157819770V10F00:00:00.00
5KM0LESCOUTREVictor157920030MI0M00:00:00.00
5KM0MARATEstelle158619790SE0F00:00:00.00
5KM0MOULRONTDAVID159619750V10M00:00:00.00
5KM0PEREZEmmanuelle161219910SE0F00:00:00.00
5KM0PIEDBOEUFValentin2059489161419960ES0M00:00:00.00ALC VIEUX CONDE
5KM0TOTHCHRISTIAN163019510V30M00:00:00.00
5KM0TOTHMARIE LOUISE163119510V30F00:00:00.00
5KM0TREVISANElisa163219850SE0F00:00:00.00
5KM0VANDERASPAILLEPEGGY163319760V10F00:00:00.00
5KM0VERMEERSCHLouis163620000JU0M00:00:00.00
5KM0DUTHOITMARC ANTOINE170619870SE0M00:00:00.00
5KM0NOLLETLaure205520050BE0F00:00:00.00
CourseClassementNomPrénomLicenceNuméroNaissanceClassement par Cat.Abbrev. CatégorieClassement par SexeSexeTempsClub 
MARCHE 5KM OUVERTE A TOUS ET A TOUTES1HUAUXDELPHINE307319661V21F00:35:44.65
MARCHE 5KM OUVERTE A TOUS ET A TOUTES2BOCQUETSerge301519431V41M00:39:40.59
MARCHE 5KM OUVERTE A TOUS ET A TOUTES3GUETICHEAli315119781V12M00:41:25.09
MARCHE 5KM OUVERTE A TOUS ET A TOUTES4RENARDELODIE318020011CA2F00:41:48.33
MARCHE 5KM OUVERTE A TOUS ET A TOUTES5VANDENBERGHEMAXENCE318619772V13M00:41:48.35
MARCHE 5KM OUVERTE A TOUS ET A TOUTES6DEFOMBELLEALEXIS304319733V14M00:42:04.55
MARCHE 5KM OUVERTE A TOUS ET A TOUTES7BOUISNicolas301919714V15M00:42:50.47
MARCHE 5KM OUVERTE A TOUS ET A TOUTES8BOUISChantal301819672V23F00:42:50.59
MARCHE 5KM OUVERTE A TOUS ET A TOUTES9DERVILLECAPUCINE318819751V14F00:43:16.26
MARCHE 5KM OUVERTE A TOUS ET A TOUTES10DE FOMBELLEESTELLE304219742V15F00:43:19.50
MARCHE 5KM OUVERTE A TOUS ET A TOUTES11NOLLETServane311019723V16F00:43:21.94
MARCHE 5KM OUVERTE A TOUS ET A TOUTES12THURETTEFAUSTINE317401ES7F00:44:41.36
MARCHE 5KM OUVERTE A TOUS ET A TOUTES13TREVISANELISA317519851SE8F00:44:41.61
MARCHE 5KM OUVERTE A TOUS ET A TOUTES14VANDEN ABEELERoxane312719784V19F00:44:42.62
MARCHE 5KM OUVERTE A TOUS ET A TOUTES15MONOTPAOLA317302ES10F00:44:54.69
MARCHE 5KM OUVERTE A TOUS ET A TOUTES16HUBAUTPHILIPPE307619735V16M00:44:59.94
MARCHE 5KM OUVERTE A TOUS ET A TOUTES17FASSEUSophie306219802SE11F00:45:30.47
MARCHE 5KM OUVERTE A TOUS ET A TOUTES18BERNARDStephanie315619725V112F00:45:38.20WASQUEHAL TRIATHLON
MARCHE 5KM OUVERTE A TOUS ET A TOUTES19CATEAUHelene316019726V113F00:45:38.37
MARCHE 5KM OUVERTE A TOUS ET A TOUTES20BECOURTDIDIER317219651V27M00:46:04.04
MARCHE 5KM OUVERTE A TOUS ET A TOUTES21BAILLIEULClara315819973ES14F00:46:51.39
MARCHE 5KM OUVERTE A TOUS ET A TOUTES22CATEAUJustine315919974ES15F00:46:52.01
MARCHE 5KM OUVERTE A TOUS ET A TOUTES23PICARTGwenaelle311420061BE16F00:46:52.49
MARCHE 5KM OUVERTE A TOUS ET A TOUTES24BOSTYNSabrina301619727V117F00:46:53.23
MARCHE 5KM OUVERTE A TOUS ET A TOUTES25DELECOURTKarelle315719728V118F00:46:54.10WASQUEHAL TRIATHLON
MARCHE 5KM OUVERTE A TOUS ET A TOUTES26MAJIEZJulie313719769V119F00:47:43.34
MARCHE 5KM OUVERTE A TOUS ET A TOUTES27VIAVATTENE WEISSYLVIE312819673V220F00:47:43.58
MARCHE 5KM OUVERTE A TOUS ET A TOUTES28DELESALLEFlorentine3047197710V121F00:47:46.95
MARCHE 5KM OUVERTE A TOUS ET A TOUTES29TRANCHANTMaïta312519793SE22F00:47:48.48
MARCHE 5KM OUVERTE A TOUS ET A TOUTES30TRANCHANTPAULINE312619794SE23F00:47:49.27
MARCHE 5KM OUVERTE A TOUS ET A TOUTES31TRANCHANTCélestine312420052BE24F00:47:49.31
MARCHE 5KM OUVERTE A TOUS ET A TOUTES32HENINLisa306720041MI25F00:47:49.50
MARCHE 5KM OUVERTE A TOUS ET A TOUTES33TARDIVONCatherine312119614V226F00:47:51.24
MARCHE 5KM OUVERTE A TOUS ET A TOUTES34TARDIVONJean-Pierre312219672V28M00:47:51.72
MARCHE 5KM OUVERTE A TOUS ET A TOUTES35DUBUSERIC318519756V19M00:47:55.97
MARCHE 5KM OUVERTE A TOUS ET A TOUTES36DUBUSBEATRICE3184197211V127F00:47:56.51
MARCHE 5KM OUVERTE A TOUS ET A TOUTES37HOUZETAnne sophie3071197312V128F00:48:19.69SPORT PASSION BONDUES
MARCHE 5KM OUVERTE A TOUS ET A TOUTES38CARISSINOMARIE319619645V229F00:48:19.77
MARCHE 5KM OUVERTE A TOUS ET A TOUTES39LAMBERTSandrine3154197113V130F00:48:19.81
MARCHE 5KM OUVERTE A TOUS ET A TOUTES40LAMBINLaurence308319636V231F00:48:19.84
MARCHE 5KM OUVERTE A TOUS ET A TOUTES41CLOEZElodier316119811SE10M00:48:33.47
MARCHE 5KM OUVERTE A TOUS ET A TOUTES42BOCQUETMarie301419501V332F00:48:33.81
MARCHE 5KM OUVERTE A TOUS ET A TOUTES43DEMARCQAmélie3052197814V133F00:48:36.49
MARCHE 5KM OUVERTE A TOUS ET A TOUTES44DUTHOITcamille306020053BE34F00:48:58.93
MARCHE 5KM OUVERTE A TOUS ET A TOUTES45JARMULOWICZLéa307820042MI35F00:48:59.34
MARCHE 5KM OUVERTE A TOUS ET A TOUTES46REERINKAmandine3116197515V136F00:49:07.12
MARCHE 5KM OUVERTE A TOUS ET A TOUTES47HUBAUTCAMILLE307520033MI37F00:49:57.56
MARCHE 5KM OUVERTE A TOUS ET A TOUTES48BAILLEUXJustine300719965ES38F00:49:58.94
MARCHE 5KM OUVERTE A TOUS ET A TOUTES49HUBAUTSANDRINE3077197316V139F00:49:59.23
MARCHE 5KM OUVERTE A TOUS ET A TOUTES50GROSSEMANNJul315319932SE11M00:50:01.53
MARCHE 5KM OUVERTE A TOUS ET A TOUTES51GROSSMANNCorinne306519627V240F00:50:01.71
MARCHE 5KM OUVERTE A TOUS ET A TOUTES52DESPINOYEmmanuelle305619688V241F00:50:06.02
MARCHE 5KM OUVERTE A TOUS ET A TOUTES53LOUEFRANCK309519727V112M00:50:06.17
MARCHE 5KM OUVERTE A TOUS ET A TOUTES54VEGNADUZZOMarc313319643V213M00:50:26.85
MARCHE 5KM OUVERTE A TOUS ET A TOUTES55BOULANGERNathalie313419669V242F00:50:27.06
MARCHE 5KM OUVERTE A TOUS ET A TOUTES56PAREINMalorie311119991JU43F00:50:53.49
MARCHE 5KM OUVERTE A TOUS ET A TOUTES57TOILLONMelanie312319875SE44F00:50:53.66
MARCHE 5KM OUVERTE A TOUS ET A TOUTES58LEPLATMarine309019976ES45F00:50:59.22
MARCHE 5KM OUVERTE A TOUS ET A TOUTES59LEPLATPhilippe309119674V214M00:51:02.29
MARCHE 5KM OUVERTE A TOUS ET A TOUTES60BOBETPaul316420061BE15M00:52:06.57
MARCHE 5KM OUVERTE A TOUS ET A TOUTES61HIDOCQRobert0749113A315519482V416M00:52:09.34WASQUEHAL TRIATHLON
MARCHE 5KM OUVERTE A TOUS ET A TOUTES62PIGEONSeverine316319738V117M00:52:13.60
MARCHE 5KM OUVERTE A TOUS ET A TOUTES63BOBETVincent316219729V118M00:52:13.77
MARCHE 5KM OUVERTE A TOUS ET A TOUTES64MOREAUJean Pierre315201ES19M00:52:27.06
MARCHE 5KM OUVERTE A TOUS ET A TOUTES65DUTHOITchris306119796SE46F00:52:34.35
MARCHE 5KM OUVERTE A TOUS ET A TOUTES66DARRASJean-Claude304019501V320M00:52:42.27
MARCHE 5KM OUVERTE A TOUS ET A TOUTES67SAVOUREPASCAL319219655V221M00:52:44.45
MARCHE 5KM OUVERTE A TOUS ET A TOUTES68SAVOURECLAIRE3178197017V147F00:52:44.76
MARCHE 5KM OUVERTE A TOUS ET A TOUTES69DARRASLucile304119542V348F00:53:01.30
MARCHE 5KM OUVERTE A TOUS ET A TOUTES70LEROUXGéraldine3093197218V149F00:53:02.30
MARCHE 5KM OUVERTE A TOUS ET A TOUTES71LEROUXAmbre309220064BE50F00:53:02.71
MARCHE 5KM OUVERTE A TOUS ET A TOUTES72LECLERCQAmandine313619897SE51F00:53:05.28
MARCHE 5KM OUVERTE A TOUS ET A TOUTES73HOLLEBEQUEClaire313519948SE52F00:53:05.65
MARCHE 5KM OUVERTE A TOUS ET A TOUTES74LAUNAIBrigitte308519563V353F00:53:15.35
MARCHE 5KM OUVERTE A TOUS ET A TOUTES75SAMAILLEDENIS318219616V222M00:53:30.00
MARCHE 5KM OUVERTE A TOUS ET A TOUTES76SAMAILLEISABELLE3183196310V254F00:53:31.50
MARCHE 5KM OUVERTE A TOUS ET A TOUTES77BENCHORFDonia301019869SE55F00:54:10.36
MARCHE 5KM OUVERTE A TOUS ET A TOUTES78?DOSSARD#3197319702ES23M00:54:27.72
MARCHE 5KM OUVERTE A TOUS ET A TOUTES79DESSAINTAndre314519453V424M00:54:37.58
MARCHE 5KM OUVERTE A TOUS ET A TOUTES80DESSAINTMarguerite314719481V456F00:54:37.72
MARCHE 5KM OUVERTE A TOUS ET A TOUTES81FRACCAROISABELLE3193197719V157F00:54:41.51
MARCHE 5KM OUVERTE A TOUS ET A TOUTES82LA SPINATONI317019873SE25M00:55:17.08
MARCHE 5KM OUVERTE A TOUS ET A TOUTES83HUAUXSOLENE3074199410SE58F00:55:30.20
MARCHE 5KM OUVERTE A TOUS ET A TOUTES84HUAUXCHARLOTTE3072199311SE59F00:55:30.56
MARCHE 5KM OUVERTE A TOUS ET A TOUTES85LIEVALANN LAURE3189197820V160F00:55:39.05
MARCHE 5KM OUVERTE A TOUS ET A TOUTES86LAMARQUEREMI319019804SE26M00:55:39.20
MARCHE 5KM OUVERTE A TOUS ET A TOUTES87LOTTENConstance3140198412SE61F00:55:42.63
MARCHE 5KM OUVERTE A TOUS ET A TOUTES88FENARTAURELIE3171198513SE62F00:55:54.03
MARCHE 5KM OUVERTE A TOUS ET A TOUTES89BOUSQUETStephan302119637V227M00:56:53.49
MARCHE 5KM OUVERTE A TOUS ET A TOUTES90BOUSQUETMarie laure3020196611V263F00:56:54.00
MARCHE 5KM OUVERTE A TOUS ET A TOUTES91BRAUREDidier3023197010V128M00:57:44.06
MARCHE 5KM OUVERTE A TOUS ET A TOUTES92BRAUREEmmanuelle3024197021V164F00:57:45.03
MARCHE 5KM OUVERTE A TOUS ET A TOUTES93BOUHASSANEKhadidja3017198614SE65F00:57:52.98
MARCHE 5KM OUVERTE A TOUS ET A TOUTES94ALI MOUNINISatuha3002196812V266F00:57:55.45
MARCHE 5KM OUVERTE A TOUS ET A TOUTES95DUJARDINElise3058198415SE67F00:58:08.27
MARCHE 5KM OUVERTE A TOUS ET A TOUTES96MAERTENSCorinne3096195913V268F00:58:08.31
MARCHE 5KM OUVERTE A TOUS ET A TOUTES97RAMARTMurielle3115196614V269F00:58:21.83
MARCHE 5KM OUVERTE A TOUS ET A TOUTES98AMPETHEA317720055BE70F00:58:35.03
MARCHE 5KM OUVERTE A TOUS ET A TOUTES99AMPEGARANCE317620012CA71F00:58:35.86
MARCHE 5KM OUVERTE A TOUS ET A TOUTES100WATELSylvie313019574V372F00:59:07.53
MARCHE 5KM OUVERTE A TOUS ET A TOUTES101DESQUIENSCATHERINE3057197722V173F00:59:07.81
MARCHE 5KM OUVERTE A TOUS ET A TOUTES102BUTELLIAmélia302720071PO74F00:59:10.79
MARCHE 5KM OUVERTE A TOUS ET A TOUTES103COVACIUSefora303920056BE75F00:59:11.02
MARCHE 5KM OUVERTE A TOUS ET A TOUTES104DEPOORTEREmma305420082PO76F00:59:11.72
MARCHE 5KM OUVERTE A TOUS ET A TOUTES105BAUWENSJOCELYNE300919575V377F00:59:15.35
MARCHE 5KM OUVERTE A TOUS ET A TOUTES106ROGIERIsabelle3118196923V178F00:59:16.00
MARCHE 5KM OUVERTE A TOUS ET A TOUTES107NOGEMarion3107198416SE79F00:59:24.93
MARCHE 5KM OUVERTE A TOUS ET A TOUTES108NOGEVeronique310819576V380F00:59:31.43
MARCHE 5KM OUVERTE A TOUS ET A TOUTES109DEGELCKELAETITIA3044197124V181F00:59:34.17
MARCHE 5KM OUVERTE A TOUS ET A TOUTES110ALLOUSSNajat3004198817SE82F01:00:06.91
MARCHE 5KM OUVERTE A TOUS ET A TOUTES111VICAINNECLAUDINE319919577V383F01:00:06.94
MARCHE 5KM OUVERTE A TOUS ET A TOUTES112NOGEBruno310619562V329M01:00:08.04
MARCHE 5KM OUVERTE A TOUS ET A TOUTES113KOSZELNIKAnne-sophie3082197825V184F01:00:32.56
MARCHE 5KM OUVERTE A TOUS ET A TOUTES114MENUFrederic309919815SE30M01:00:41.20
MARCHE 5KM OUVERTE A TOUS ET A TOUTES115LEMAYRomain308719836SE31M01:00:42.35
MARCHE 5KM OUVERTE A TOUS ET A TOUTES116LEMAYNathanael308620091EA32M01:00:42.71
MARCHE 5KM OUVERTE A TOUS ET A TOUTES117DELRUEAnne Sophie3050197126V185F01:00:43.90
MARCHE 5KM OUVERTE A TOUS ET A TOUTES118DELRUEChristophe3051197111V133M01:00:44.24
MARCHE 5KM OUVERTE A TOUS ET A TOUTES119JEAN-DENISLorenzo308020071PO34M01:01:19.26
MARCHE 5KM OUVERTE A TOUS ET A TOUTES120ARMEDEKenji300520052BE35M01:01:21.94
MARCHE 5KM OUVERTE A TOUS ET A TOUTES121FLIPPOELEONORE319120067BE86F01:02:13.72
MARCHE 5KM OUVERTE A TOUS ET A TOUTES122HIDOCQLola306920068BE87F01:02:14.14
MARCHE 5KM OUVERTE A TOUS ET A TOUTES123RENARDBEATRICE3179196927V188F01:02:19.85
MARCHE 5KM OUVERTE A TOUS ET A TOUTES124MOTIOAntonio310019454V436M01:03:40.34
MARCHE 5KM OUVERTE A TOUS ET A TOUTES125HIDOCQNina307020083PO89F01:04:36.27
MARCHE 5KM OUVERTE A TOUS ET A TOUTES126HIDOCQAlice306820121BB90F01:04:37.28
MARCHE 5KM OUVERTE A TOUS ET A TOUTES127MARCHANDRene309819425V437M01:04:37.74
MARCHE 5KM OUVERTE A TOUS ET A TOUTES128CAPPELaetitia3032197628V191F01:04:41.20
MARCHE 5KM OUVERTE A TOUS ET A TOUTES129CAPPEJérôme3031197312V138M01:04:41.43
MARCHE 5KM OUVERTE A TOUS ET A TOUTES130CAPPEAntoine303020031MI39M01:04:41.64
MARCHE 5KM OUVERTE A TOUS ET A TOUTES131BIALONAUGUSTIN301120072PO40M01:04:54.02
MARCHE 5KM OUVERTE A TOUS ET A TOUTES132DELARUELUCILE304620069BE92F01:04:55.10
MARCHE 5KM OUVERTE A TOUS ET A TOUTES133DELARUEJEANNE304520101EA93F01:04:55.68
MARCHE 5KM OUVERTE A TOUS ET A TOUTES134DEPLEDTDelphine3053199518SE94F01:05:28.68
MARCHE 5KM OUVERTE A TOUS ET A TOUTES135BIALONMICHAEL3013197213V141M01:05:28.69
MARCHE 5KM OUVERTE A TOUS ET A TOUTES136HANZAZEFatima3066198019SE95F01:06:46.51
MARCHE 5KM OUVERTE A TOUS ET A TOUTES137WARINLaurent312919668V242M01:06:56.05
MARCHE 5KM OUVERTE A TOUS ET A TOUTES138LEMAYRomy308820122BB96F01:06:59.72
MARCHE 5KM OUVERTE A TOUS ET A TOUTES139LANOYEStephanie3084198320SE97F01:07:00.87
MARCHE 5KM OUVERTE A TOUS ET A TOUTES140LEMAYVanessa3089198221SE98F01:07:01.11
MARCHE 5KM OUVERTE A TOUS ET A TOUTES141BIALONAnne Sophie3012197329V199F01:07:10.90
MARCHE 5KM OUVERTE A TOUS ET A TOUTES142LHARMINEZAlexandre3144197514V143M01:08:20.93
MARCHE 5KM OUVERTE A TOUS ET A TOUTES143VASSORTBetty3150198322SE100F01:08:22.32
MARCHE 5KM OUVERTE A TOUS ET A TOUTES144BODINVanessa3149197830V1101F01:08:24.13
MARCHE 5KM OUVERTE A TOUS ET A TOUTES145MUJINGAIrène3101197131V1102F01:08:26.76
MARCHE 5KM OUVERTE A TOUS ET A TOUTES146BOUTOILLECeline3022199423SE103F01:08:50.91
MARCHE 5KM OUVERTE A TOUS ET A TOUTES147CHAVANDMireille303419538V3104F01:08:52.23
MARCHE 5KM OUVERTE A TOUS ET A TOUTES148DELESALLEJosette304819589V3105F01:09:00.23
MARCHE 5KM OUVERTE A TOUS ET A TOUTES149DELEMARSylvie3204196815V2106F01:09:00.36
MARCHE 5KM OUVERTE A TOUS ET A TOUTES150NAESSENSLaura3102197832V1107F01:09:29.16
MARCHE 5KM OUVERTE A TOUS ET A TOUTES151BASILAIRELaurence3008195810V3108F01:09:29.35
MARCHE 5KM OUVERTE A TOUS ET A TOUTES152NAESSENSSylvain310319847SE44M01:09:29.35
MARCHE 5KM OUVERTE A TOUS ET A TOUTES153?DOSSARD#1517151703ES45M01:09:36.82
MARCHE 5KM OUVERTE A TOUS ET A TOUTES154ROBINValérie3117196516V2109F01:09:37.19
MARCHE 5KM OUVERTE A TOUS ET A TOUTES155FRETEDOMINIQUE319819523V346M01:09:37.97
MARCHE 5KM OUVERTE A TOUS ET A TOUTES156JEAN-DENISLiliane3079200510BE110F01:09:56.31
MARCHE 5KM OUVERTE A TOUS ET A TOUTES157JEAN-DENISRégine3081198324SE111F01:10:19.79
MARCHE 5KM OUVERTE A TOUS ET A TOUTES158DESBOISROLINMartina3055198825SE112F01:11:05.21
MARCHE 5KM OUVERTE A TOUS ET A TOUTES159BULTEZChloé302519967ES113F01:11:34.88
MARCHE 5KM OUVERTE A TOUS ET A TOUTES160BUTELLIEnzo302820032MI47M01:11:35.64
MARCHE 5KM OUVERTE A TOUS ET A TOUTES161BURDACLAIRE318108ES114F01:11:47.64
MARCHE 5KM OUVERTE A TOUS ET A TOUTES162DUPONTJessica3059198226SE115F01:11:48.53
MARCHE 5KM OUVERTE A TOUS ET A TOUTES163DEPRAETERESTEFANIE3187198127SE116F01:11:49.21
MARCHE 5KM OUVERTE A TOUS ET A TOUTES164NJIKIObeline3105198128SE117F01:14:08.69
MARCHE 5KM OUVERTE A TOUS ET A TOUTES165LEROYRebecca3094198229SE118F01:14:08.95
MARCHE 5KM OUVERTE A TOUS ET A TOUTES166DELIGNEADELINE3049198430SE119F01:14:49.24
MARCHE 5KM OUVERTE A TOUS ET A TOUTES167NOLLETGUILLAUME310919838SE48M01:14:49.50
MARCHE 5KM OUVERTE A TOUS ET A TOUTES168ALLEMEESCHIsabelle3003198331SE120F01:14:49.54
MARCHE 5KM OUVERTE A TOUS ET A TOUTES169ZLATARUEmilia3131198532SE121F01:15:09.07
MARCHE 5KM OUVERTE A TOUS ET A TOUTES170COVACIUAlex303720063BE49M01:15:09.24
MARCHE 5KM OUVERTE A TOUS ET A TOUTES171COVACIURicardo303820083PO50M01:15:09.33
MARCHE 5KM OUVERTE A TOUS ET A TOUTES172CAQUINEAUCéline3033197933SE122F01:18:59.15
MARCHE 5KM OUVERTE A TOUS ET A TOUTES173MAIREMathilde3097199334SE123F01:20:41.74
MARCHE 5KM OUVERTE A TOUS ET A TOUTES174NGADZOUALarissa3104198435SE124F01:20:44.59
MARCHE 5KM OUVERTE A TOUS ET A TOUTES175SANSONEALEXIS320004ES51M01:21:16.20
MARCHE 5KM OUVERTE A TOUS ET A TOUTES176CAVANIOLAGNES320209ES125F01:21:17.38
MARCHE 5KM OUVERTE A TOUS ET A TOUTES177CAVANIOLGUILLAUME320105ES52M01:21:18.84
MARCHE 5KM OUVERTE A TOUS ET A TOUTES178CAVANIOLCHARLOTTE3203010ES126F01:21:18.88
MARCHE 5KM OUVERTE A TOUS ET A TOUTES179COQUERELLELaurine3036198136SE127F01:23:33.67
MARCHE 5KM OUVERTE A TOUS ET A TOUTES180?DOSSARD#3194319406ES53M01:23:33.72
MARCHE 5KM OUVERTE A TOUS ET A TOUTES181NOLLETEloi160520011CA54M01:24:19.65HANDBALL LA MADELEINE
MARCHE 5KM OUVERTE A TOUS ET A TOUTES182BRUNEELGuillaume1514197415V155M01:50:21.08FAW
MARCHE 5KM OUVERTE A TOUS ET A TOUTES0AICHAFella300119880SE0F00:00:00.00
MARCHE 5KM OUVERTE A TOUS ET A TOUTES0AVETPascal300619670V20M00:00:00.00
MARCHE 5KM OUVERTE A TOUS ET A TOUTES0BULTHÉClaude302619690V10M00:00:00.00
MARCHE 5KM OUVERTE A TOUS ET A TOUTES0CANDELOROMarie Claire302919610V20F00:00:00.00
MARCHE 5KM OUVERTE A TOUS ET A TOUTES0CHERIGUISafia303519810SE0F00:00:00.00
MARCHE 5KM OUVERTE A TOUS ET A TOUTES0GALLIOTClemence306420020CA0F00:00:00.00
MARCHE 5KM OUVERTE A TOUS ET A TOUTES0PATRYCatherine311219590V20F00:00:00.00
MARCHE 5KM OUVERTE A TOUS ET A TOUTES0PATRYGérard311319530V30M00:00:00.00
MARCHE 5KM OUVERTE A TOUS ET A TOUTES0STEPHANERoger311919440V40M00:00:00.00
MARCHE 5KM OUVERTE A TOUS ET A TOUTES0STIENNEDelphine312019700V10F00:00:00.00
MARCHE 5KM OUVERTE A TOUS ET A TOUTES0ZZEZzz313220120BB0M00:00:00.00
MARCHE 5KM OUVERTE A TOUS ET A TOUTES0ROUSSENBrigitte313819580V30F00:00:00.00
MARCHE 5KM OUVERTE A TOUS ET A TOUTES0CANUPascal313919590V20M00:00:00.00
MARCHE 5KM OUVERTE A TOUS ET A TOUTES0DUMEZJean-Paul314119600V20M00:00:00.00
MARCHE 5KM OUVERTE A TOUS ET A TOUTES0RIVALSandrine314200ES0F00:00:00.00
MARCHE 5KM OUVERTE A TOUS ET A TOUTES0LHARMINEZSacha314320150BB0M00:00:00.00
MARCHE 5KM OUVERTE A TOUS ET A TOUTES0DESSAINTLouis314619940SE0M00:00:00.00
MARCHE 5KM OUVERTE A TOUS ET A TOUTES0GACISonia314819820SE0F00:00:00.00
MARCHE 5KM OUVERTE A TOUS ET A TOUTES0BEAUDEUXAdele316500ES0M00:00:00.00
MARCHE 5KM OUVERTE A TOUS ET A TOUTES0BEAUDEUXLouis316619770V10M00:00:00.00
MARCHE 5KM OUVERTE A TOUS ET A TOUTES0BEAUDEUXPerrine316719790SE0F00:00:00.00
MARCHE 5KM OUVERTE A TOUS ET A TOUTES0BEAUDEUXOctave316820130BB0M00:00:00.00
MARCHE 5KM OUVERTE A TOUS ET A TOUTES0BEAUDEUXBalthazar316920130BB0M00:00:00.00
MARCHE 5KM OUVERTE A TOUS ET A TOUTES0CAUDALBernard319519480V40M00:00:00.00
CourseClassementNomPrénomLicenceNuméroNaissanceClassement par Cat.Abbrev. CatégorieClassement par SexeSexeTempsClub 
MINI TRAIL 1KM5001CHANDELIERGaspard1606374200820051BE1M00:05:02.70US MARQUETTE
MINI TRAIL 1KM5002VANHAECKEETIENNE204520071PO2M00:05:05.93
MINI TRAIL 1KM5003HAGEJules202720052BE3M00:05:12.83
MINI TRAIL 1KM5004CORDIERMAXENCE1905022201120063BE4M00:05:14.14US MARQUETTE
MINI TRAIL 1KM5005PITAVALThomas203720064BE5M00:05:22.94
MINI TRAIL 1KM5006GAXATTETitouan1606364202620055BE6M00:05:28.60ATHLE HALLUIN-VAL-DE-LYS
MINI TRAIL 1KM5007THUILLIEZSimon205120056BE7M00:05:30.13
MINI TRAIL 1KM5008VANHAECKEDANIEL204420072PO8M00:05:32.15
MINI TRAIL 1KM5009DE CLERCQMarion1708360205620041MI1F00:05:32.87VILLENEUVE D ASCQ FRETIN ATHLETISME
MINI TRAIL 1KM50010HOPPENOTLouis206120067BE9M00:05:34.36
MINI TRAIL 1KM50011STOEUXEloi204120073PO10M00:05:36.51AC MARCQUOIS
MINI TRAIL 1KM50012EL BADAOUICHAHID207420084PO11M00:05:38.56
MINI TRAIL 1KM50013BIETYANIS200220068BE12M00:05:39.38COURIR A COMINES
MINI TRAIL 1KM50014BEDELESIXTINE1681023200120042MI2F00:05:39.90AC WAMBRECHIES
MINI TRAIL 1KM50015COURONNELCELIA201220043MI3F00:05:40.32
MINI TRAIL 1KM50016DE BAROLETMartin201520085PO13M00:05:42.56
MINI TRAIL 1KM50017DECOTTEGNIECecile206320051BE4F00:05:44.06
MINI TRAIL 1KM50018BONIFACEColine200320052BE5F00:05:45.34
MINI TRAIL 1KM50019COPPINLEOPOLDINE206920081PO6F00:05:50.23
MINI TRAIL 1KM50020JOURDANTCome205020059BE14M00:05:51.35
MINI TRAIL 1KM50021?DOSSARD#2079207901ES15M00:05:55.48
MINI TRAIL 1KM50022DEBOSQUEGermain2017200610BE16M00:05:56.10
MINI TRAIL 1KM50023SAVOUREMARIN2066200511BE17M00:05:56.22
MINI TRAIL 1KM50024VANHAECKESOPHIE204720063BE7F00:05:57.28
MINI TRAIL 1KM50025WOORONSREMY207820041MI18M00:06:00.14
MINI TRAIL 1KM50026HELLEINESTEBAN207220086PO19M00:06:02.08
MINI TRAIL 1KM50027TOULEMONDEBarthelemy204320077PO20M00:06:03.77
MINI TRAIL 1KM50028VANHAECKEKATHLEEN1657237204620064BE8F00:06:05.13US MARQUETTE
MINI TRAIL 1KM50029MOLLETTancrede206020078PO21M00:06:09.58
MINI TRAIL 1KM50030PROUVOSTSarah203820065BE9F00:06:10.58
MINI TRAIL 1KM50031TURANANTOINE206802ES22M00:06:11.49
MINI TRAIL 1KM50032NIVESSEMathis203420079PO23M00:06:11.71
MINI TRAIL 1KM50033WOLFMatthieu2052200512BE24M00:06:20.69
MINI TRAIL 1KM50034RICATTETheo2054200710PO25M00:06:25.86
MINI TRAIL 1KM50035BERRAISSGILIANE207520072PO10F00:06:29.03
MINI TRAIL 1KM50036DUFOREAUAUGUSTIN2073200811PO26M00:06:36.52
MINI TRAIL 1KM50037DEGROOTE FLAMANTLISA207120056BE11F00:06:40.81
MINI TRAIL 1KM50038HEULSGauthier2064200712PO27M00:06:45.68
MINI TRAIL 1KM50039DEWAVRINThomas2062200813PO28M00:06:45.83
MINI TRAIL 1KM50040CRETONAmandine201320067BE12F00:06:46.65AC MARCQUOIS
MINI TRAIL 1KM50041ROSZAKMartin2040200513BE29M00:06:47.13
MINI TRAIL 1KM50042DUMONTQuentin2022200714PO30M00:06:48.80
MINI TRAIL 1KM50043DUMONTEwan2021200614BE31M00:06:50.05
MINI TRAIL 1KM50044ZAHNOUNYoussef2049200815PO32M00:06:55.95
MINI TRAIL 1KM50045GASSERMarion202520068BE13F00:06:56.31
MINI TRAIL 1KM50046CLEMENTArthur2009200816PO33M00:06:59.53
MINI TRAIL 1KM50047KUHNValentin2028200817PO34M00:07:02.30
MINI TRAIL 1KM50048PERROUDEmma203620083PO14F00:07:04.07
MINI TRAIL 1KM50049CZAPRAGAELIOT2014200718PO35M00:07:07.53
MINI TRAIL 1KM50050BUTRUILLEMax2006200719PO36M00:07:13.41
MINI TRAIL 1KM50051PUMAAlessio16997152039200615BE37M00:07:14.58DOUAI-SIN A
MINI TRAIL 1KM50052LAUNAYJEAN2070200720PO38M00:07:19.89
MINI TRAIL 1KM50053BOULINSAM200420084PO15F00:07:21.59
MINI TRAIL 1KM50054LEFEVREAGATHE202920075PO16F00:07:23.21
MINI TRAIL 1KM50055COLDEFYFaye201020086PO17F00:07:24.84
MINI TRAIL 1KM50056MANTELElise203120069BE18F00:07:26.43
MINI TRAIL 1KM50057MOLLETMargueritte205920087PO19F00:07:27.45
MINI TRAIL 1KM50058BOYEREMMA207620078PO20F00:07:28.40
MINI TRAIL 1KM50059PALMERVICTOIRE203520079PO21F00:07:28.77
MINI TRAIL 1KM50060DECARNE-MEULEMANSGabriel2018200821PO39M00:07:33.66
MINI TRAIL 1KM50061MEULEMANSChristophe203319791SE40M00:07:34.04
MINI TRAIL 1KM50062WOLFFHeloise2053200710PO22F00:07:48.37
MINI TRAIL 1KM50063LOURETTEHermine2058200811PO23F00:07:48.88
MINI TRAIL 1KM50064REGHEMLOUISE2065200812PO24F00:07:49.59
MINI TRAIL 1KM50065BOUSLAHJarod2005200722PO41M00:07:50.01
MINI TRAIL 1KM50066?DOSSARD#2067206703ES42M00:07:50.21
MINI TRAIL 1KM50067DONNIZAUXCapucine2020200813PO25F00:08:06.76
MINI TRAIL 1KM50068VERVAEKESIDONIE2077200814PO26F00:08:12.39
MINI TRAIL 1KM50069DEBONNEJuliette2016200815PO27F00:08:12.67
MINI TRAIL 1KM5000CANAVATELeo200720040MI0M00:00:00.00
MINI TRAIL 1KM5000DELETTRÉRomain201920070PO0M00:00:00.00
MINI TRAIL 1KM5000EL BADOURIRANIAT303541202320070PO0F00:00:00.00
MINI TRAIL 1KM5000FAUCQUEZMAXENCE202420060BE0M00:00:00.00
MINI TRAIL 1KM5000LENGLETGabrielle203020070PO0F00:00:00.00
MINI TRAIL 1KM5000MERIAUNoé203220040MI0M00:00:00.00
MINI TRAIL 1KM5000SXAYTitouan204220080PO0M00:00:00.00
MINI TRAIL 1KM5000WOORONSRemy204820040MI0M00:00:00.00
MINI TRAIL 1KM5000SVOBOOAAxel205720060BE0M00:00:00.00
MINI TRAIL 1KM5000CALIMETCHARLOTTE208720080PO0F00:00:00.00

13 ans de partenariat
avec Ludopital

Rendez-vous le

27 Mai 2018

S’inscrire

PARTICIPEZ À

L’ORGANISATION

En savoir +

VENEZ EN FAMILLE !

MARCHE ET COURSE 800M

En savoir +

Nos Partenaires

Inscrivez-vous dès aujourd'hui

Les inscriptions sont ouvertes !